GFSNW_700_spd_000.txt.gz
Wind_Speed
9 7 7 7 9 9 9 10 10 12 12 11 8 7 6 6 6 5 4 4 4 3 0 3 2 1 5 9 13 11 10 5 12 9 7 6 2 10 20 9 7 21 22 29
11 9 8 8 9 9 6 5 9 10 9 8 7 7 5 4 3 3 4 4 3 3 2 2 3 2 6 8 11 12 11 6 7 1 4 3 14 19 25 26 14 15 10 12
13 12 10 9 10 9 7 9 9 9 7 7 8 8 7 5 4 3 2 2 2 3 3 2 3 5 4 7 14 16 14 10 10 10 13 15 23 27 27 27 20 25 33 38
16 14 12 10 9 10 9 7 9 11 10 9 7 5 4 1 2 3 3 3 2 3 4 7 10 11 10 13 15 15 14 17 18 23 20 20 29 31 28 31 27 28 28 30
18 17 14 12 11 9 8 8 8 9 10 9 9 7 7 5 4 5 5 6 6 8 10 11 14 17 18 22 18 19 21 22 20 28 26 22 31 30 18 15 17 27 36 35
20 18 17 15 13 10 9 8 7 7 7 8 7 8 10 9 8 7 10 12 14 13 14 18 19 20 20 20 22 22 26 21 13 11 18 21 26 11 19 23 27 26 26 33
21 20 19 17 15 13 12 10 9 8 7 7 7 10 10 10 12 12 11 14 16 16 19 19 22 23 20 16 9 15 19 15 16 15 20 4 18 25 26 26 21 26 31 35
23 22 20 19 17 16 15 13 12 11 10 9 9 11 13 13 14 14 14 17 19 20 17 23 21 21 8 12 10 10 11 13 14 8 9 22 30 18 14 22 27 29 21 29
25 24 22 20 19 18 17 16 15 14 12 12 11 11 12 14 15 15 16 15 18 19 20 17 11 9 16 4 9 11 16 17 17 22 12 6 26 26 21 16 31 21 41 50
27 26 25 22 21 19 18 17 16 16 14 15 13 12 13 14 14 16 17 18 18 19 20 21 20 17 16 10 12 15 16 17 23 27 24 18 34 25 16 15 32 49 44 38
28 27 26 24 22 21 20 19 18 18 17 16 15 15 14 15 15 15 17 19 22 22 19 16 18 16 15 17 21 21 21 16 22 20 13 15 18 16 28 45 56 51 45 46
29 28 27 26 24 22 22 22 21 21 20 18 16 16 15 15 18 18 20 23 24 16 18 22 21 24 30 33 32 33 28 28 31 30 35 40 44 43 40 40 42 44 45 47
30 28 28 26 26 25 24 24 24 25 24 25 24 22 22 23 23 22 26 27 26 27 27 30 33 37 40 37 27 23 32 34 39 43 46 43 38 35 34 38 41 45 47 52
33 32 31 29 28 28 25 26 25 23 30 32 27 22 21 23 29 28 24 27 31 32 31 31 34 33 31 35 40 44 43 35 43 44 37 37 36 37 41 43 45 48 50 40
34 32 30 30 30 27 26 28 29 27 26 27 29 30 32 32 31 35 39 35 28 30 40 40 39 42 39 47 46 42 42 42 37 46 36 42 44 43 44 45 44 45 37 28
33 33 31 31 30 30 29 31 30 28 28 34 42 44 47 48 35 29 29 31 34 31 33 38 41 38 35 42 39 44 44 42 40 39 41 37 38 41 44 50 41 37 27 29
30 28 33 35 32 31 32 34 33 30 32 39 47 43 23 14 17 16 17 22 23 25 29 36 37 39 41 47 50 46 42 39 36 33 34 39 40 41 36 27 23 28 36 36
25 28 29 31 31 32 32 36 32 30 27 28 26 27 19 23 18 23 22 20 20 31 35 37 36 39 40 43 45 39 37 34 37 39 39 37 40 44 45 35 32 37 38 40
19 21 25 27 31 37 38 29 23 28 37 34 31 27 28 21 17 16 19 32 36 31 35 33 33 40 39 41 34 29 29 29 32 33 33 35 38 30 29 30 36 41 44 45
19 20 24 30 34 29 26 24 28 22 23 35 39 35 31 29 32 40 35 18 18 18 27 24 29 36 32 21 19 24 27 28 29 31 32 33 33 32 36 36 41 46 45 44
20 23 26 27 25 24 25 19 17 18 20 24 33 32 37 41 36 28 17 14 11 10 15 12 13 21 19 15 21 24 23 24 29 30 29 26 27 33 37 41 45 49 45 42
19 19 21 18 15 10 10 12 13 14 14 17 20 18 17 20 20 16 13 16 9 8 10 7 7 12 20 18 17 19 23 26 23 22 24 28 31 38 44 44 44 42 42 42
14 16 16 11 13 16 11 15 14 14 18 21 17 15 11 15 16 12 8 7 11 10 7 7 13 17 13 14 14 13 18 22 26 29 36 41 45 47 44 43 43 43 43 43
12 12 12 10 9 11 21 19 15 18 14 13 12 12 9 12 10 10 7 9 7 6 7 16 19 18 18 19 20 24 28 32 37 42 46 49 46 43 43 44 43 43 43 42
12 9 9 16 16 12 8 12 16 15 14 13 11 15 16 15 10 7 9 6 7 8 11 15 19 19 23 29 34 38 41 44 47 46 42 40 41 43 45 45 44 40 38 36
17 14 13 12 10 12 13 11 12 12 13 13 11 13 9 11 9 11 10 8 14 17 18 18 23 30 37 40 40 40 45 43 39 38 39 41 44 44 45 46 42 36 33 32
15 17 21 20 15 10 10 11 12 14 14 14 13 10 9 9 10 13 17 26 25 24 25 28 29 36 42 45 46 42 39 38 37 38 40 42 42 41 41 40 35 31 30 27

GFSNW_700_spd_003.txt.gz
Wind_Speed
8 7 6 6 9 10 11 10 12 13 13 11 10 8 9 8 7 7 7 6 5 4 3 4 2 1 3 8 8 11 10 2 7 4 2 5 6 6 12 4 5 12 16 17
11 9 9 7 9 11 10 10 13 14 12 9 10 11 9 8 7 6 6 6 5 5 3 2 3 2 4 7 7 11 11 5 5 2 6 10 15 21 13 21 18 14 9 10
13 12 10 11 9 9 8 12 12 12 9 10 8 10 10 8 7 6 5 6 4 3 3 3 4 6 7 9 10 14 15 9 10 10 12 19 28 27 26 25 18 19 30 37
17 15 13 11 12 11 10 9 12 13 12 12 11 10 10 8 7 5 5 4 4 2 2 5 8 10 10 12 16 14 11 17 21 22 21 22 29 30 27 29 28 24 30 29
19 17 14 12 11 11 11 11 12 11 11 10 11 8 8 5 5 5 5 5 7 8 10 10 12 14 14 14 13 12 17 19 21 30 22 15 29 30 16 15 21 24 29 35
21 20 17 15 13 11 9 10 12 12 12 12 11 12 10 9 8 7 7 8 10 11 11 15 16 15 15 17 18 19 22 19 9 10 19 18 23 5 21 24 28 33 35 28
23 21 19 18 15 13 12 10 11 11 11 12 12 12 12 11 11 10 11 11 10 12 17 19 18 21 17 14 11 15 18 18 15 14 19 3 17 26 30 28 23 25 25 29
24 22 21 20 17 15 14 13 12 11 11 12 13 13 13 12 12 12 12 13 15 18 17 19 19 20 3 10 13 8 12 14 14 11 13 22 34 22 22 24 30 34 27 24
26 24 23 23 21 19 17 16 14 13 12 13 13 15 16 16 15 16 17 18 17 17 17 17 11 7 16 6 8 15 14 16 19 22 12 6 27 27 24 25 33 21 21 37
28 26 25 24 23 21 20 18 16 15 14 14 12 15 16 16 16 16 16 17 17 17 18 20 18 17 20 10 14 14 17 17 22 29 29 21 28 23 21 17 19 35 47 44
29 28 26 25 25 24 22 20 19 17 17 15 13 14 15 16 16 17 16 14 17 18 18 17 17 14 15 19 22 21 21 17 25 18 12 15 22 26 30 42 48 43 41 45
30 29 27 26 25 24 23 22 21 19 18 15 14 16 17 18 19 19 19 21 19 17 19 18 18 21 29 34 34 37 28 31 30 22 25 44 46 47 37 36 38 41 42 45
30 30 29 27 27 27 26 24 23 23 23 22 22 20 20 21 21 24 24 21 20 23 23 27 31 34 35 37 29 30 27 32 37 33 44 38 38 39 31 32 37 40 44 43
30 29 29 29 29 28 27 26 26 25 25 27 22 20 20 24 27 26 23 22 25 27 27 32 37 37 33 33 41 41 36 40 37 43 37 41 37 39 41 42 36 35 43 45
30 30 30 30 30 30 30 29 28 27 26 23 19 17 20 30 33 28 29 28 35 37 40 37 34 35 40 46 38 33 36 39 37 39 41 36 39 44 37 32 45 44 43 34
31 30 30 32 32 32 30 31 30 29 31 30 36 32 31 30 34 36 36 42 33 31 33 35 37 31 30 31 38 40 37 36 34 41 29 32 38 34 39 39 35 31 38 32
32 31 32 32 34 31 32 32 29 26 26 29 32 32 34 25 18 19 13 17 20 21 26 31 29 27 31 39 39 36 39 36 28 30 32 32 37 38 33 36 40 33 30 31
39 35 32 32 30 33 33 32 29 27 28 31 29 28 24 24 19 18 22 23 25 27 26 28 36 38 30 35 35 29 28 27 30 31 27 26 26 29 31 31 32 38 36 38
34 37 29 27 28 31 34 27 29 27 28 21 26 28 25 20 19 14 19 24 26 28 33 37 32 27 24 32 28 25 25 26 24 27 25 25 27 26 30 31 34 38 39 42
20 22 26 31 35 25 24 30 30 36 29 33 38 36 30 27 28 25 22 24 23 33 30 20 25 34 31 19 18 23 24 24 24 23 26 27 29 37 43 42 38 43 47 46
24 27 28 25 25 25 26 12 13 13 18 26 34 37 36 30 30 24 20 13 13 10 17 17 15 20 20 21 24 23 23 23 23 27 33 36 37 39 39 42 46 44 45 44
24 22 24 25 24 21 15 14 14 15 13 21 21 22 23 26 26 24 12 15 9 9 10 7 5 13 17 20 19 18 17 20 22 25 29 31 35 46 49 51 47 43 43 45
17 20 19 16 13 12 13 16 14 15 21 24 19 16 13 15 15 10 10 7 9 9 7 6 13 20 21 20 18 17 19 22 26 32 38 43 47 50 47 44 43 46 46 44
15 12 11 11 9 11 24 23 19 23 18 16 14 12 8 12 11 10 6 9 6 5 7 18 21 23 22 22 23 25 28 33 40 44 46 47 50 44 42 44 45 46 44 42
13 9 8 16 17 14 10 15 20 19 16 14 11 11 12 12 10 7 8 5 6 7 9 13 17 20 23 27 31 36 41 45 49 49 50 44 42 41 42 43 44 42 41 41
14 12 13 14 12 13 14 12 12 12 13 11 11 11 8 11 8 9 9 7 12 14 13 14 18 23 30 35 41 43 44 48 45 41 38 38 38 40 42 42 38 39 38 36
16 19 22 18 13 9 9 10 12 12 13 13 9 7 9 8 9 10 16 23 19 18 21 23 27 33 37 41 45 43 41 39 37 36 37 37 39 37 39 39 35 36 35 32

GFSNW_700_spd_009.txt.gz
Wind_Speed
12 11 13 14 16 16 16 14 12 15 15 14 12 9 11 12 12 10 8 8 6 6 5 3 3 3 1 3 5 6 9 2 3 5 2 1 2 4 5 2 3 6 8 18
13 11 13 14 15 15 15 14 12 15 15 13 13 12 12 12 11 10 9 8 7 6 5 3 3 2 1 2 6 7 10 4 4 1 3 5 5 10 15 10 9 12 5 11
14 13 12 14 14 14 14 12 13 16 15 10 10 12 12 12 11 8 8 7 7 6 5 4 4 2 3 6 9 10 11 5 5 7 9 15 21 20 18 15 11 14 28 31
17 15 14 14 15 13 13 12 12 17 16 12 12 13 12 12 11 8 9 8 6 6 5 4 4 4 5 9 11 9 7 9 13 14 15 17 21 22 21 23 25 18 25 26
19 17 16 14 13 12 12 12 10 15 15 15 14 13 13 11 10 10 9 7 7 6 4 4 3 5 6 6 7 11 16 11 15 20 12 14 27 30 17 5 9 18 21 27
21 19 17 15 13 13 12 11 10 13 14 15 15 14 13 12 10 8 7 6 6 4 3 3 6 6 5 8 12 13 15 10 11 11 13 18 22 1 12 18 25 23 23 27
22 20 18 16 14 13 13 13 12 13 14 14 14 12 10 9 9 7 7 6 5 4 5 7 8 5 5 5 8 10 13 14 12 11 16 2 15 22 28 27 16 22 26 29
23 21 20 18 16 14 13 13 15 15 13 13 13 12 11 10 10 8 7 6 5 6 7 9 6 5 3 7 7 10 9 11 12 6 7 18 27 12 16 19 30 23 27 27
24 23 21 20 18 16 15 14 13 14 13 13 13 12 11 11 11 10 9 8 8 9 10 9 3 2 6 4 9 10 14 15 17 12 7 5 16 22 25 23 25 16 19 30
25 24 22 20 19 17 17 16 15 14 13 12 12 12 11 11 13 11 9 10 11 11 12 12 9 8 11 6 6 9 16 19 20 17 12 18 21 15 14 12 18 32 33 38
26 25 23 21 20 19 18 17 16 15 14 13 13 13 14 14 14 13 12 11 13 13 12 9 9 8 10 11 12 18 24 16 20 11 8 9 10 24 33 39 44 34 35 41
27 25 24 22 21 20 20 18 17 16 16 13 16 17 16 18 18 17 16 16 15 9 9 7 8 12 17 19 20 21 19 17 17 16 24 29 35 35 35 36 40 35 34 28
27 26 25 24 23 22 21 20 19 19 17 17 19 18 18 20 20 20 19 19 19 19 20 20 22 25 27 24 21 23 33 30 30 34 32 33 32 30 34 32 28 35 35 39
29 28 27 26 25 24 23 22 21 21 20 21 20 15 19 23 22 22 21 21 21 22 24 26 30 31 27 27 30 35 37 33 31 34 33 33 32 31 36 31 32 37 41 37
31 30 28 27 26 25 24 23 23 23 21 16 14 18 24 25 23 21 25 25 24 24 26 28 29 32 33 36 34 44 21 28 25 34 34 32 34 35 27 30 40 38 32 28
31 29 28 26 26 26 26 26 27 26 24 25 27 26 27 27 26 25 27 31 26 28 33 35 32 31 29 32 31 25 27 26 29 32 31 30 35 37 36 37 36 31 29 34
33 32 30 27 28 28 27 29 26 25 23 24 23 26 30 26 24 25 27 28 29 28 33 35 32 33 28 33 37 37 35 30 28 26 29 34 33 32 33 32 27 28 33 34
32 29 28 28 29 29 30 30 28 26 23 23 17 20 23 22 15 13 17 21 26 32 30 32 30 27 24 30 34 30 27 30 27 29 35 30 28 30 30 29 31 36 38 39
33 32 29 30 31 33 33 29 28 27 26 23 27 29 22 19 16 20 25 23 24 28 29 26 24 24 20 21 26 31 34 31 31 29 25 28 29 30 29 32 37 42 45 49
36 34 36 32 36 33 28 31 30 31 33 33 35 33 28 26 19 17 15 19 24 19 20 18 23 27 28 30 30 31 25 27 22 21 24 27 29 32 36 40 42 47 52 54
37 41 38 40 38 38 37 28 20 20 19 22 32 28 30 24 19 20 13 9 8 9 15 16 15 21 24 25 23 24 24 23 24 25 28 32 34 38 42 44 50 52 47 44
41 41 37 38 31 20 16 16 14 12 16 12 12 16 18 13 11 12 11 13 9 8 10 9 10 20 22 22 22 22 23 24 26 27 29 33 36 41 48 50 46 44 42 41
31 25 20 15 11 9 11 13 10 10 6 6 6 10 13 14 16 11 10 8 10 10 7 7 14 19 18 18 18 20 22 24 26 29 33 39 45 46 43 42 40 39 40 41
11 5 3 7 5 6 6 6 6 8 9 10 10 11 9 13 10 11 7 10 8 7 11 18 17 15 13 13 16 20 23 26 32 38 43 43 41 40 39 37 38 39 40 40
9 5 4 7 5 8 4 4 7 11 13 13 12 12 12 12 10 8 9 6 7 8 9 11 10 9 12 18 22 25 29 35 41 39 39 40 39 37 37 36 38 38 38 39
7 7 6 3 7 8 8 6 6 7 11 13 13 12 8 13 8 9 9 6 7 11 14 13 10 15 22 24 27 33 38 37 38 39 36 35 35 35 36 36 35 35 36 38
9 10 12 11 10 5 5 7 8 8 10 12 11 8 10 8 8 9 11 18 20 20 16 12 18 27 30 32 33 30 33 34 33 33 32 31 31 33 34 35 33 34 36 37

GFSNW_700_spd_012.txt.gz
Wind_Speed
12 13 17 18 17 18 18 18 16 21 20 18 17 12 14 16 16 14 12 10 8 11 9 7 6 6 5 3 1 1 4 1 2 4 5 5 5 4 3 3 2 5 5 14
13 12 16 18 19 19 18 16 17 20 19 15 17 14 16 17 16 14 11 11 10 10 10 5 7 7 5 3 3 4 5 2 2 2 4 7 5 5 10 13 9 11 7 7
15 12 14 17 19 19 18 16 14 18 19 14 13 14 16 16 15 12 11 10 10 10 9 6 7 6 4 4 5 5 6 4 4 5 7 10 10 11 11 11 10 14 22 25
16 14 14 15 17 18 18 17 15 19 20 15 14 14 15 16 15 12 12 11 10 10 9 7 6 5 4 6 7 5 4 7 11 12 13 19 18 16 15 20 22 18 20 20
19 17 15 16 16 16 17 16 14 18 12 16 16 16 17 15 14 14 13 10 10 9 7 6 4 4 5 7 6 7 10 8 14 16 14 17 22 26 19 9 13 18 19 22
20 19 18 17 17 16 15 15 13 16 14 18 18 18 17 16 12 12 11 9 9 8 6 5 4 5 7 8 9 10 10 8 9 8 12 25 13 4 6 13 15 13 15 15
22 20 19 17 16 16 14 14 12 16 18 19 18 15 14 14 13 11 12 11 8 7 6 4 4 5 6 9 9 7 8 10 9 8 13 4 6 18 23 15 14 12 16 20
22 22 20 19 16 15 15 15 15 16 15 18 17 15 14 13 12 11 10 9 8 7 4 3 2 3 4 7 10 6 6 7 7 3 6 22 15 4 8 14 20 21 21 19
23 21 21 20 18 16 15 15 16 17 16 18 16 16 14 13 13 12 11 10 8 6 4 2 3 3 4 4 5 7 6 8 9 8 5 5 4 17 19 15 16 13 23 35
24 23 22 21 19 18 16 15 15 15 15 14 16 16 14 15 15 13 11 11 9 8 7 7 5 6 8 5 5 8 11 13 12 10 10 12 16 14 12 12 14 33 35 36
26 24 23 22 20 18 18 17 16 15 14 12 14 14 14 14 15 14 12 12 14 11 10 7 7 8 9 10 13 12 12 7 8 6 8 7 6 21 18 28 32 36 37 31
28 26 24 23 21 20 19 18 17 16 15 11 14 14 15 15 16 16 16 17 10 10 8 9 7 10 14 15 13 16 15 11 12 13 17 22 28 24 32 32 30 33 33 31
29 27 25 23 22 20 19 18 18 17 17 16 17 16 15 17 18 18 18 19 19 18 16 16 17 19 20 22 19 20 24 23 27 27 30 19 25 25 33 33 33 36 25 35
30 28 26 25 24 22 21 20 19 19 18 19 17 15 19 21 20 19 20 21 21 21 21 21 21 23 20 25 24 27 28 28 32 28 26 23 21 31 36 33 29 29 38 32
30 29 27 27 26 24 23 22 22 21 19 12 17 21 23 21 19 17 18 20 23 26 26 26 26 25 30 32 30 36 28 24 28 29 25 27 30 31 27 37 34 31 29 26
30 29 29 29 28 27 25 24 25 23 23 24 24 24 24 21 19 20 20 22 24 27 28 30 30 30 27 22 26 34 25 31 28 33 33 29 30 29 32 28 25 26 25 28
31 31 31 30 29 28 27 27 25 24 23 24 23 25 28 28 26 26 25 25 25 27 29 34 34 33 28 33 37 34 36 30 29 30 28 30 28 30 26 24 27 28 29 33
35 31 31 29 29 29 30 28 26 24 22 23 16 17 19 17 15 15 16 17 20 26 30 33 29 28 26 29 34 31 28 29 22 25 24 30 28 25 25 26 28 31 34 40
34 34 31 31 33 34 32 28 27 26 26 23 29 31 22 20 20 18 19 20 26 29 31 31 25 26 21 23 30 30 22 21 28 32 25 23 21 23 25 28 32 38 44 48
40 38 33 37 37 35 26 26 27 28 32 34 37 29 23 20 16 18 21 19 14 15 19 19 26 32 31 26 29 26 26 28 22 20 18 20 22 25 29 37 41 45 49 44
39 44 44 36 29 33 30 17 17 21 28 30 39 36 31 29 27 27 19 14 9 10 15 16 12 22 22 23 22 22 21 19 17 18 20 24 27 32 39 42 45 42 41 40
49 45 44 43 40 22 16 18 18 16 21 16 22 26 27 24 21 23 11 12 8 9 11 10 11 19 19 19 19 19 18 18 19 21 24 26 31 37 42 40 40 41 38 36
37 41 35 22 18 14 12 14 13 17 13 17 18 21 25 17 10 8 9 7 9 9 8 10 18 21 17 14 13 13 15 18 20 23 26 31 38 37 38 39 36 35 35 36
25 18 17 15 9 10 8 13 14 15 15 21 13 11 9 12 9 10 6 11 8 7 10 18 22 19 11 8 9 13 17 20 23 28 33 36 35 36 34 33 32 34 35 34
7 6 4 6 8 10 11 11 9 8 7 6 7 10 11 11 10 9 9 6 7 7 10 13 10 7 6 10 14 16 20 25 30 34 33 34 34 34 32 30 30 32 35 34
8 4 5 6 5 5 4 4 3 3 4 6 10 9 7 11 7 9 10 7 8 14 15 13 11 10 12 16 19 23 28 32 31 32 33 34 33 31 29 28 27 28 32 32
5 8 5 4 4 3 3 2 4 5 7 11 10 9 10 7 8 10 12 19 20 18 18 18 16 17 19 24 27 30 30 29 31 32 32 32 30 30 29 26 26 28 30 31

GFSNW_700_spd_015.txt.gz
Wind_Speed
13 16 17 16 18 20 21 20 9 23 23 15 13 8 7 14 18 16 12 7 8 8 8 5 4 6 4 4 1 1 2 0 1 2 6 4 2 3 4 4 4 6 7 15
14 15 18 18 18 19 21 11 12 24 23 12 18 15 13 16 16 13 10 11 10 8 9 4 6 6 5 3 1 1 2 1 3 3 1 2 3 5 6 6 7 12 11 11
14 15 17 20 20 19 20 10 12 21 22 13 13 14 13 17 17 15 13 11 11 10 8 6 8 6 5 4 5 3 1 1 2 7 9 10 11 13 13 13 14 16 20 23
16 15 16 18 20 20 19 13 12 19 21 17 12 12 12 13 16 16 12 11 9 10 7 7 6 6 6 6 5 4 2 2 5 9 12 13 15 17 17 19 20 23 24 22
18 16 15 17 19 19 20 14 15 19 11 16 14 14 13 14 13 12 13 9 12 9 6 4 8 5 4 3 4 3 5 4 10 14 11 14 18 21 19 18 14 18 18 18
20 18 17 17 18 19 19 19 17 16 19 18 15 14 14 13 14 14 9 12 11 13 9 10 9 9 9 7 4 5 6 4 7 7 15 24 10 2 4 9 11 13 14 17
21 20 19 18 18 17 16 17 16 17 18 17 15 15 13 14 12 12 14 11 12 12 10 9 9 8 8 8 8 8 7 6 6 8 10 3 3 14 18 15 11 11 13 13
22 20 20 18 17 17 16 15 15 16 16 20 19 16 16 17 15 11 15 13 10 10 10 8 5 6 6 8 8 8 7 7 4 3 8 19 12 3 4 13 14 15 10 11
22 22 19 19 18 16 15 16 16 15 15 19 19 17 16 18 17 15 14 13 11 11 10 8 6 4 4 4 4 7 8 9 6 6 4 4 5 9 15 11 20 16 15 26
23 21 20 19 18 17 16 14 15 17 17 16 18 19 19 16 15 13 15 14 13 12 11 10 9 6 7 4 6 5 8 10 12 9 10 11 12 17 11 9 12 18 32 36
25 22 21 21 20 19 17 16 14 15 16 15 19 20 18 17 18 16 17 15 16 16 14 11 10 9 9 8 6 8 7 6 7 6 7 8 6 11 17 22 24 28 35 34
28 25 23 22 21 20 18 17 16 15 16 11 15 16 17 19 20 17 16 16 11 12 12 14 10 11 9 10 5 7 8 13 8 10 12 17 23 25 26 26 27 34 36 29
29 27 25 23 22 21 20 18 17 17 16 15 15 17 17 17 17 17 19 19 20 18 19 16 17 17 16 16 16 14 18 15 24 19 21 21 23 24 30 30 32 31 30 31
30 29 27 25 23 21 20 19 18 17 17 18 17 17 20 19 19 19 19 21 19 21 22 24 24 23 20 23 20 20 24 16 22 27 28 26 22 25 29 28 25 29 31 27
30 30 29 28 25 24 22 21 21 19 19 12 18 22 21 19 19 20 21 21 22 22 23 26 25 26 27 33 31 34 29 24 23 29 26 34 29 31 33 26 27 25 24 26
30 29 29 29 27 25 24 24 24 22 21 23 23 20 20 19 21 23 24 24 25 24 27 28 27 26 24 23 32 39 27 25 24 27 33 32 31 37 22 25 24 23 26 27
31 30 29 29 28 27 28 26 25 24 23 24 24 25 29 26 25 25 26 26 30 28 30 32 31 30 27 33 39 33 27 31 28 27 30 30 25 19 23 21 23 26 27 28
32 31 31 29 29 29 28 27 26 22 22 25 18 17 20 22 24 25 27 30 30 33 33 34 33 29 29 33 38 34 30 26 24 28 17 17 22 21 19 20 24 27 32 37
31 31 29 30 33 33 29 26 26 27 27 23 28 31 27 24 24 20 20 23 25 27 29 31 29 31 28 31 26 28 27 26 26 23 24 24 19 18 21 24 27 33 40 42
36 34 34 35 37 32 27 27 27 30 34 36 40 35 29 24 19 20 22 22 18 19 25 24 27 37 33 29 28 26 26 25 21 23 20 17 18 21 24 28 34 39 40 40
37 38 42 40 38 33 30 27 24 27 29 36 44 43 32 30 24 22 20 19 12 12 19 18 14 28 25 19 19 20 21 20 18 16 16 17 20 25 29 34 38 38 39 38
40 44 42 34 32 22 23 19 19 19 25 28 29 31 31 34 34 32 28 25 11 10 13 10 11 21 16 14 16 17 17 17 16 16 17 20 25 29 33 35 36 37 36 34
29 40 35 30 19 15 12 19 25 28 24 25 26 25 22 30 32 27 17 11 10 9 8 8 10 19 18 16 13 15 17 17 16 17 21 25 29 33 33 34 34 35 33 32
18 16 17 14 7 10 11 17 21 26 26 23 20 21 27 27 25 11 8 9 7 6 6 10 15 17 15 15 14 13 15 16 17 21 26 29 32 31 32 33 34 32 31 28
12 8 6 6 6 8 11 14 14 15 16 17 21 25 13 11 7 7 6 4 6 6 5 11 10 12 12 11 11 15 15 18 21 27 31 31 31 32 33 33 31 31 30 28
5 3 7 12 12 11 11 11 11 13 12 12 9 6 3 6 5 5 8 5 4 9 16 15 11 9 11 13 15 15 18 24 29 32 31 31 32 33 33 32 30 31 30 29
5 7 6 8 6 11 10 4 7 8 8 8 6 3 7 4 6 7 10 17 21 21 16 14 14 12 14 16 18 22 28 31 31 30 31 33 33 33 32 31 30 30 30 31

GFSNW_700_spd_021.txt.gz
Wind_Speed
19 21 23 24 25 25 23 19 16 16 20 21 22 14 4 8 7 15 13 7 10 7 12 5 7 11 8 8 10 7 8 9 8 5 4 2 2 1 1 2 2 1 2 9
19 21 22 23 25 25 23 19 12 12 20 21 22 10 8 5 6 14 12 13 11 6 12 6 7 11 8 11 7 8 11 9 8 3 1 2 4 1 6 8 10 11 5 7
19 20 20 22 25 25 24 18 12 12 19 16 20 10 10 13 12 12 10 9 13 11 10 8 11 11 11 8 6 7 9 10 6 7 4 5 6 8 8 11 10 13 18 18
19 21 19 23 27 28 25 12 11 12 25 17 18 12 5 11 16 13 13 8 10 12 9 7 9 8 9 8 7 8 9 11 10 8 6 8 9 11 13 15 15 16 19 10
19 20 20 23 28 30 22 12 15 13 17 18 17 16 12 11 5 8 9 5 9 11 12 12 10 8 4 5 8 9 10 7 7 4 6 7 14 8 4 1 3 7 6 9
19 19 23 23 28 28 19 9 11 18 11 22 15 12 15 13 14 9 11 10 15 15 15 17 16 13 11 9 8 9 6 6 4 3 6 11 4 5 7 9 12 14 13 15
19 19 21 24 25 25 21 17 14 17 17 18 18 16 14 12 15 12 12 12 19 20 16 12 13 12 12 12 11 9 7 7 5 4 6 1 5 9 15 10 12 11 10 15
21 19 20 20 22 22 22 15 16 13 11 14 16 11 12 14 17 15 18 20 18 18 17 14 12 11 11 13 11 13 12 10 5 4 4 11 9 6 11 12 12 14 18 23
21 19 18 20 19 18 16 13 12 12 11 12 15 15 17 19 20 19 21 19 18 17 17 14 8 7 6 6 6 14 12 10 10 8 4 6 7 6 11 15 16 18 17 19
21 19 17 16 15 15 14 13 12 12 12 13 18 17 19 21 21 19 18 17 16 14 15 14 11 10 10 7 7 10 15 13 15 15 9 8 10 15 14 11 15 17 19 26
20 18 17 16 15 14 13 12 12 12 12 10 16 19 19 19 15 17 16 16 17 17 16 14 14 11 13 13 14 11 12 9 10 10 7 10 8 11 17 20 26 27 29 31
20 18 17 16 16 15 14 13 11 11 11 9 13 20 20 19 18 14 14 16 14 13 11 15 11 12 12 17 12 17 15 19 12 13 9 16 20 21 27 30 30 30 29 29
22 20 18 16 15 15 15 14 13 11 11 12 12 16 17 19 22 19 18 16 16 17 17 16 14 14 15 17 18 17 11 18 22 19 20 18 20 28 31 32 32 32 29 32
24 22 20 18 16 15 14 15 15 15 13 14 12 14 16 18 19 19 18 18 18 18 18 18 19 20 18 21 21 22 22 22 26 31 26 22 26 30 31 33 32 32 33 35
25 24 22 20 18 16 16 18 17 17 16 8 14 18 17 18 19 19 20 20 21 21 22 24 23 23 24 29 30 32 25 28 30 35 34 32 32 30 30 30 33 36 35 28
27 25 24 23 21 20 19 19 20 19 19 19 20 17 16 19 22 20 21 23 23 24 26 26 26 27 25 23 30 33 26 23 25 28 30 29 29 29 31 32 32 31 18 20
29 27 26 24 24 23 22 21 21 22 22 21 22 22 23 20 20 21 24 23 25 26 28 30 28 26 25 33 39 36 32 31 30 29 30 30 30 33 31 25 21 18 19 20
25 25 25 24 25 25 24 22 22 20 20 23 19 14 16 19 21 23 25 26 26 29 31 33 32 32 32 38 41 36 29 24 25 29 28 27 27 25 25 21 21 19 18 20
24 23 22 23 23 23 21 22 23 23 24 23 26 26 21 23 23 22 22 23 25 29 33 34 33 34 34 37 33 33 30 30 27 23 23 23 24 22 20 19 18 17 20 25
24 23 24 24 22 21 21 22 24 27 29 32 32 29 26 24 23 20 19 20 20 21 26 23 29 39 37 33 30 28 30 30 25 23 24 22 21 18 16 16 18 21 26 30
29 28 27 26 24 23 23 19 17 19 25 31 36 35 34 31 28 26 22 17 12 18 21 19 23 36 32 24 22 24 27 28 26 23 20 18 18 15 15 18 21 26 30 32
24 25 24 22 24 19 15 16 17 20 19 24 22 24 29 33 32 27 22 22 14 13 15 11 14 20 18 10 13 17 18 18 18 20 18 17 15 15 17 21 27 31 33 33
17 20 23 18 14 13 12 16 12 16 22 22 20 21 23 24 22 20 17 13 15 19 11 11 15 13 10 11 10 10 10 12 13 12 13 14 16 18 22 28 32 34 32 32
15 15 10 11 7 10 14 15 16 16 13 14 18 22 16 22 19 17 9 11 9 9 6 5 8 12 9 4 2 3 8 12 13 12 14 16 19 22 28 33 32 31 32 32
11 7 6 9 9 9 9 13 15 15 14 14 13 18 24 17 15 10 9 6 4 5 3 8 7 4 5 6 7 8 8 9 13 17 20 23 26 30 32 30 30 31 32 31
7 6 3 1 4 6 8 9 10 10 8 9 15 15 7 9 4 4 3 4 3 2 4 8 10 8 4 4 8 12 14 16 19 21 24 28 31 30 29 28 28 30 32 31
4 5 6 6 5 3 6 5 5 7 9 10 7 5 5 3 2 4 5 2 7 10 10 9 10 11 10 10 13 15 18 21 23 27 29 27 26 27 27 28 29 31 29 28

GFSNW_700_spd_024.txt.gz
Wind_Speed
26 28 30 31 31 29 26 24 22 23 23 22 24 24 5 7 11 15 14 11 8 11 17 15 16 12 7 9 11 12 11 10 10 7 4 5 4 4 3 2 3 3 1 4
25 28 29 32 32 29 27 22 21 20 23 22 24 18 7 9 9 17 15 12 11 15 15 9 7 9 8 10 9 10 14 10 10 5 5 6 4 5 4 5 7 9 4 4
26 27 29 31 31 30 28 26 20 19 22 22 23 12 10 10 8 12 16 14 12 13 13 13 9 10 9 12 10 11 14 16 9 10 6 7 8 9 8 8 8 12 19 17
26 28 29 30 32 32 30 28 20 17 25 24 24 16 9 13 13 13 12 17 14 14 14 13 12 11 12 13 11 12 12 13 11 10 10 10 12 11 11 14 16 12 18 17
26 27 27 31 33 34 30 20 17 14 11 20 23 20 13 7 15 14 13 10 12 15 16 15 13 10 12 11 13 14 14 10 14 12 13 12 11 12 10 7 8 10 10 11
26 27 27 32 35 37 23 21 18 18 19 23 21 24 15 11 8 9 10 12 13 14 11 11 8 9 7 7 8 11 11 11 11 7 12 11 13 13 11 9 11 16 21 24
25 27 27 32 36 35 16 20 20 21 30 26 21 17 19 14 15 10 10 12 13 15 13 11 10 11 11 11 10 10 11 10 9 5 7 1 8 10 9 11 12 17 18 19
24 26 27 30 34 31 20 19 18 21 18 23 21 17 17 16 16 14 11 13 13 15 14 13 11 13 14 17 18 17 16 13 8 5 8 10 10 16 12 9 13 19 20 22
25 25 27 27 30 27 21 17 15 15 17 21 22 20 18 16 16 14 15 18 18 17 16 16 12 7 9 6 7 18 18 17 16 10 5 6 8 13 13 12 20 9 11 17
24 24 26 26 27 26 22 19 16 15 15 16 20 21 17 16 17 17 17 18 18 17 16 18 17 13 11 8 9 10 16 17 20 19 11 10 15 16 15 10 12 16 19 17
24 22 21 23 23 21 19 17 15 14 14 14 20 20 20 18 18 16 17 17 19 18 17 16 16 12 15 16 17 13 11 10 14 14 10 12 15 17 18 19 25 24 24 22
24 22 20 19 19 18 17 15 14 14 15 13 18 21 18 17 18 17 16 17 14 12 11 15 12 13 13 18 16 19 17 21 15 16 10 15 21 25 25 26 26 28 25 26
23 21 20 19 18 16 16 14 13 13 12 12 16 19 19 18 17 15 15 14 14 14 16 17 15 15 16 17 18 20 21 20 22 24 26 26 25 27 25 26 28 28 28 30
23 21 19 18 17 16 15 15 14 14 13 13 13 16 20 19 18 18 19 18 17 15 16 17 19 20 18 20 21 20 20 19 25 30 31 31 29 27 26 30 31 29 32 33
22 21 19 18 16 15 14 14 14 14 15 8 16 15 17 18 19 19 20 19 19 20 20 22 22 22 24 28 29 30 26 27 31 35 30 33 35 34 31 28 28 30 32 38
23 22 20 19 17 15 14 14 15 15 16 17 15 13 15 20 19 18 19 21 22 23 23 25 27 26 26 23 32 33 27 24 25 30 29 29 29 28 27 27 30 35 33 29
25 24 22 21 20 18 18 17 15 16 16 17 17 18 20 18 18 18 20 21 23 25 27 29 29 29 30 37 39 34 32 31 31 30 29 29 29 29 28 32 33 31 29 23
26 25 24 23 21 21 20 19 19 18 17 19 14 11 16 17 17 18 20 22 24 27 30 31 31 32 32 37 37 34 31 27 28 27 25 24 28 30 32 30 28 26 21 17
25 26 25 23 23 22 22 21 21 22 22 20 22 22 20 21 20 19 19 20 24 28 30 31 32 34 36 36 35 34 28 28 27 26 24 24 26 31 23 25 20 17 16 19
23 22 21 20 20 19 19 20 21 24 26 28 27 25 22 21 20 20 19 20 19 20 24 22 29 39 36 32 30 31 29 25 25 23 25 27 26 27 18 16 18 19 18 22
25 24 21 19 17 17 18 17 14 15 17 25 30 28 29 27 26 24 21 17 13 20 20 20 22 32 32 28 25 24 23 22 21 20 26 23 23 16 18 19 19 17 21 27
26 24 21 21 20 17 13 13 13 14 14 17 17 19 23 28 28 26 23 23 15 12 14 12 14 23 18 16 16 17 20 20 21 22 19 14 18 20 17 16 16 22 27 31
20 22 21 13 13 12 10 15 12 14 18 17 16 16 16 18 18 17 14 11 13 17 10 9 11 8 9 12 12 10 8 10 12 12 12 13 16 16 17 21 24 28 31 32
19 13 9 11 7 10 12 15 18 19 18 19 15 13 9 13 12 14 7 10 8 7 6 5 7 9 12 9 4 4 1 4 8 12 14 12 17 21 23 25 29 32 29 28
11 9 6 9 9 8 6 10 12 14 13 12 10 14 20 14 11 8 8 5 4 4 3 6 8 3 3 4 3 4 6 8 8 11 16 19 22 25 28 30 28 27 26 26
9 8 6 5 6 8 9 10 9 9 8 8 10 14 9 12 7 5 4 3 3 3 2 1 2 4 4 1 5 8 10 13 17 19 20 23 27 29 27 25 26 26 27 29
5 7 8 6 6 6 5 4 4 4 4 7 7 6 7 4 4 6 6 5 3 3 4 5 8 11 10 7 10 13 16 18 20 23 28 28 26 26 26 27 26 29 30 31

GFSNW_700_spd_030.txt.gz
Wind_Speed
44 43 41 39 39 39 39 39 37 35 33 28 28 28 16 7 9 17 22 17 11 11 20 15 16 12 13 10 11 13 13 9 8 14 9 10 9 8 7 3 4 4 2 7
45 44 43 41 41 40 40 40 36 35 33 31 30 31 13 6 9 12 19 19 15 9 17 17 17 14 12 9 10 11 14 8 7 5 10 14 12 12 10 8 5 8 4 5
46 45 43 43 41 39 37 36 30 35 34 32 32 31 20 8 9 11 13 14 13 11 15 18 14 16 13 11 11 13 15 12 11 15 5 10 15 15 14 13 7 7 17 20
46 45 43 44 42 39 37 36 30 39 37 35 33 31 18 12 10 9 10 11 12 12 15 14 10 12 13 11 11 12 12 13 16 15 11 10 13 15 16 18 18 16 21 22
44 43 43 44 43 41 38 35 29 35 15 33 33 29 23 17 16 9 10 12 13 14 10 10 9 9 11 11 12 13 13 10 13 16 16 14 17 18 20 22 25 26 25 25
40 42 44 44 43 40 38 33 28 29 32 33 34 31 25 20 18 12 10 8 12 15 12 11 9 8 8 8 11 11 13 11 10 7 14 17 19 25 26 28 29 27 26 18
38 40 43 44 42 39 36 31 24 26 26 24 33 29 29 17 12 11 13 10 10 9 7 7 5 6 5 6 7 8 9 9 9 6 7 2 18 20 17 20 25 28 25 22
36 37 40 41 40 38 35 31 24 23 23 24 29 29 29 22 16 12 8 8 9 8 9 8 6 8 8 11 12 11 11 10 7 6 10 18 18 20 21 22 20 21 23 22
33 35 36 38 39 37 32 27 25 23 18 26 27 26 30 25 18 17 13 9 9 10 11 11 8 5 4 4 4 9 13 15 15 11 6 6 12 13 15 18 27 26 23 17
31 32 34 35 37 38 31 26 23 20 19 28 27 23 25 25 21 19 16 15 13 12 13 14 12 11 10 7 7 9 12 13 17 19 15 10 20 21 20 13 19 12 12 14
30 30 31 34 37 38 33 28 23 19 21 27 28 23 22 21 20 19 18 17 15 14 17 16 15 10 12 13 18 17 15 9 11 10 9 11 14 16 16 15 15 19 21 27
29 27 30 34 40 37 24 22 20 20 21 23 24 22 22 19 18 19 16 13 10 11 11 15 13 15 17 17 18 19 16 19 15 13 11 16 21 26 25 21 22 27 30 29
29 28 29 34 38 34 20 13 15 17 18 19 23 22 20 20 20 18 17 16 15 15 15 16 15 15 16 17 17 19 19 18 23 25 25 24 25 27 27 28 30 30 29 29
30 30 30 31 33 26 29 16 16 17 18 17 21 21 21 20 20 19 19 18 16 16 17 18 19 20 18 19 20 18 16 21 26 29 28 28 26 26 26 28 29 28 29 29
27 31 31 29 28 26 24 21 19 18 19 16 17 18 20 21 21 20 19 18 18 18 20 21 21 21 22 24 24 24 23 24 26 30 24 26 26 27 28 29 30 32 32 31
24 23 23 24 24 23 22 21 20 19 20 9 15 17 19 20 20 20 19 20 20 21 21 21 22 22 23 18 21 26 25 25 28 30 29 30 29 29 29 28 28 27 26 25
24 24 24 23 22 21 21 20 18 18 16 16 12 10 16 18 18 18 19 19 20 20 22 24 24 25 26 30 32 27 27 27 27 27 28 28 26 28 28 27 27 25 22 27
22 22 21 21 20 19 18 16 13 15 15 14 9 8 12 14 16 18 18 19 20 23 25 26 26 28 29 33 31 30 28 28 28 28 28 29 30 30 29 28 27 26 26 32
21 19 18 17 17 16 15 15 14 13 14 10 11 13 11 11 13 15 17 20 23 23 25 25 25 28 23 25 31 31 31 32 32 31 31 30 29 27 26 26 28 28 36 30
22 20 19 18 17 15 15 15 15 17 17 17 16 14 15 15 15 16 18 19 16 15 19 18 23 27 28 29 30 31 30 28 27 27 28 26 25 23 23 25 33 33 22 15
25 23 21 20 17 17 17 15 11 12 11 15 19 20 21 21 20 18 14 11 9 11 14 16 14 19 20 21 21 22 24 23 23 24 23 23 20 22 24 24 21 13 9 12
21 20 19 18 16 13 11 10 10 8 10 10 11 16 21 24 22 17 13 15 9 9 10 9 8 18 18 18 18 22 23 21 20 17 17 16 15 12 12 9 8 13 19 23
19 18 16 11 12 13 9 11 8 11 14 15 14 13 14 15 17 13 10 9 10 11 6 5 9 15 14 14 15 13 10 10 8 6 3 2 4 7 10 15 19 23 24 26
19 17 15 11 8 8 15 16 16 18 16 12 11 11 8 12 9 10 6 8 7 5 6 7 8 9 8 7 9 11 10 11 12 13 15 18 21 21 22 23 24 27 30 31
18 13 9 14 15 11 10 14 18 17 14 11 10 9 8 8 7 7 8 5 6 6 6 8 10 9 7 5 4 5 5 7 10 11 15 18 19 20 22 26 29 31 29 29
7 6 4 6 8 10 9 10 11 10 9 9 12 11 6 10 6 7 8 5 6 7 9 9 7 9 8 7 7 7 9 12 15 17 18 19 21 24 26 26 27 29 29 29
6 6 8 7 8 9 9 10 11 11 13 13 9 7 9 6 6 7 6 7 7 6 4 6 9 9 8 9 10 10 9 11 13 16 20 22 23 24 25 26 27 29 32 34

GFSNW_700_spd_033.txt.gz
Wind_Speed
53 48 46 44 43 44 46 45 42 40 36 32 29 30 27 12 11 18 19 17 15 17 18 12 13 11 12 11 15 13 14 9 9 14 9 9 11 11 9 5 5 5 2 7
52 49 48 46 46 46 47 43 38 37 36 35 30 30 26 13 13 18 23 18 12 13 13 14 13 13 10 11 8 12 15 10 7 4 10 14 15 16 14 12 8 9 4 4
52 51 49 47 45 45 46 42 31 39 37 33 33 30 26 14 13 15 20 20 15 11 9 18 11 15 14 13 12 12 14 16 12 14 7 8 19 21 18 16 10 11 19 20
53 51 49 47 46 46 47 42 30 41 41 37 34 28 26 14 14 13 15 15 17 14 10 18 16 17 17 15 14 14 15 15 18 17 14 12 13 14 19 22 22 19 23 23
52 51 49 49 47 47 46 39 28 36 17 36 31 30 25 19 14 14 14 12 13 13 11 13 16 10 11 13 14 15 16 11 13 16 18 17 18 18 19 22 24 28 29 30
52 51 51 50 47 46 44 33 25 27 31 36 34 31 30 21 17 12 10 11 14 13 12 10 8 9 11 12 14 14 15 13 10 8 13 16 17 26 26 27 28 29 31 27
50 51 51 49 47 43 40 32 26 23 31 23 35 29 27 24 19 15 11 10 11 13 12 10 8 8 8 9 9 11 10 11 10 6 6 2 15 18 17 19 19 22 25 28
48 49 49 49 45 41 38 34 24 22 23 32 33 30 28 25 20 15 13 12 11 10 11 10 7 8 8 10 11 11 10 9 6 4 8 15 16 16 21 23 23 21 23 19
45 47 47 46 43 41 38 34 23 19 22 27 26 32 30 28 23 18 15 11 12 12 14 11 7 6 5 5 5 13 15 14 12 9 5 5 5 12 17 20 23 19 14 16
41 42 43 44 42 40 37 32 26 20 20 17 28 31 33 31 26 22 19 16 13 11 12 11 10 9 7 4 4 5 8 10 14 17 11 9 11 15 16 9 11 11 12 10
35 36 40 42 40 38 34 28 25 20 20 14 26 27 29 31 27 22 19 20 19 15 14 11 11 8 10 10 12 11 10 6 7 8 7 7 4 6 8 14 21 19 17 21
32 34 37 39 39 36 34 27 24 20 18 18 26 25 19 23 27 23 20 18 12 15 11 12 8 11 11 13 12 14 13 14 11 11 9 14 20 22 19 20 21 20 23 26
30 31 33 35 38 39 36 28 20 18 16 18 27 26 22 21 21 19 19 18 16 16 14 12 11 13 13 14 13 15 15 15 20 21 20 20 23 23 23 22 21 21 25 26
27 28 31 36 38 40 39 26 19 18 19 20 26 25 24 22 20 19 18 17 16 14 14 15 16 18 15 15 15 13 16 20 23 25 22 22 21 23 24 24 24 25 24 25
26 29 31 33 34 32 32 23 16 16 18 20 23 23 22 21 21 20 19 18 17 17 17 18 17 18 18 20 19 19 19 18 20 22 22 26 26 26 27 27 26 28 28 28
27 29 30 30 30 26 21 11 17 17 19 10 20 20 21 21 21 19 18 18 18 18 17 18 20 21 19 12 13 18 21 21 25 26 27 26 26 25 26 26 26 27 27 26
31 27 29 28 27 26 26 25 21 19 18 14 14 14 18 18 18 19 20 20 20 20 20 21 21 20 20 23 22 22 24 24 24 25 25 24 25 26 27 27 27 26 27 23
24 25 22 22 23 22 21 19 16 18 16 16 10 8 12 16 17 18 19 20 20 21 22 22 23 22 22 20 21 23 24 24 24 26 28 29 29 28 27 26 25 22 22 26
23 22 21 20 20 19 18 16 15 17 17 12 12 12 10 11 14 16 18 20 22 22 23 23 22 22 17 20 23 25 27 28 28 28 26 25 24 24 22 19 20 23 25 24
21 20 19 17 17 17 16 14 13 13 14 14 11 10 12 11 13 15 17 17 13 13 16 16 20 22 23 23 25 26 26 25 22 23 21 22 24 21 19 19 20 16 15 15
22 20 18 14 12 10 9 8 6 8 9 11 15 15 16 17 18 16 11 9 7 8 13 14 10 15 20 20 20 19 20 22 23 25 24 20 18 16 17 15 13 11 8 10
21 18 16 16 14 9 8 8 8 6 9 11 13 17 22 23 20 15 11 13 8 8 8 9 7 14 16 17 16 18 20 20 18 17 15 12 9 7 6 8 12 19 23 25
22 20 18 10 10 8 8 10 10 12 14 14 15 16 17 17 17 12 8 7 9 8 6 6 12 14 16 13 12 11 11 9 7 6 6 9 12 16 18 19 21 21 21 21
18 14 13 10 7 9 16 15 16 14 12 12 14 14 10 13 10 9 6 9 7 6 7 9 12 12 8 6 6 7 6 6 7 7 9 13 16 16 17 19 21 23 22 23
13 9 8 10 12 10 9 14 16 15 13 13 12 13 12 9 8 7 7 5 6 7 8 8 9 7 6 6 7 6 4 3 6 9 12 14 14 16 19 21 22 23 25 26
11 10 6 7 10 11 12 12 13 12 10 10 10 10 5 8 5 7 8 5 6 6 6 5 4 5 6 5 7 6 8 9 10 11 12 15 17 19 20 21 23 25 27 30
6 6 9 7 8 9 9 8 8 8 10 12 8 6 8 5 6 6 5 4 6 6 2 3 4 7 8 9 9 8 8 9 12 14 17 18 19 21 22 24 26 28 31 34

GFSNW_700_spd_036.txt.gz
Wind_Speed
67 67 55 55 50 46 44 45 41 52 47 41 34 27 25 21 16 20 21 18 15 18 17 15 14 16 15 17 15 13 13 9 7 10 12 13 14 11 12 8 5 5 2 5
70 56 61 58 54 53 49 48 34 47 47 37 37 27 27 21 17 21 22 20 18 19 19 13 14 15 16 12 15 13 15 10 8 4 9 13 13 16 16 15 10 9 4 4
59 62 64 60 56 51 46 48 33 42 46 33 31 30 27 23 18 22 24 21 17 16 17 18 14 16 16 13 13 12 13 16 14 17 9 7 10 21 21 16 9 10 15 14
41 66 65 60 55 51 49 49 35 41 48 42 32 29 29 22 20 19 24 23 18 16 15 17 18 17 16 16 15 15 14 12 20 21 17 15 15 13 17 22 21 14 18 17
62 64 61 60 56 53 53 49 32 34 33 40 32 31 27 23 21 21 23 20 21 18 16 12 15 18 17 17 17 17 17 12 16 18 20 20 20 20 19 19 20 25 24 27
66 63 60 59 57 55 55 42 26 40 25 42 32 34 27 23 20 21 21 17 18 17 15 13 11 15 12 14 16 16 18 18 13 8 14 15 16 24 26 26 27 27 23 22
61 63 61 59 57 55 53 38 26 34 33 43 35 28 30 27 20 17 17 15 16 16 15 13 11 11 12 13 15 14 14 16 12 6 4 3 12 14 14 17 17 20 21 23
62 61 58 56 53 51 48 37 27 27 34 22 38 32 28 25 22 19 14 11 12 14 15 13 11 11 10 11 12 13 13 12 7 5 7 12 16 16 16 15 15 18 20 21
58 57 56 54 51 51 46 36 30 24 24 32 25 34 29 28 26 22 16 14 14 13 17 14 8 7 7 7 6 17 15 14 12 7 4 4 5 9 12 15 11 5 7 10
55 55 55 52 49 49 45 37 29 24 26 19 30 31 33 29 27 24 20 17 16 16 19 17 9 8 10 5 6 6 11 13 16 15 9 7 12 13 11 3 4 14 20 16
52 52 52 49 47 45 43 35 28 24 21 16 23 28 33 31 28 26 23 21 20 19 17 13 11 9 12 10 10 7 7 6 7 7 6 5 1 4 6 11 19 18 17 16
48 49 49 47 45 43 38 32 29 23 19 16 17 26 27 32 29 26 22 24 16 19 16 13 8 10 9 12 6 9 9 11 8 7 4 11 16 13 16 21 23 22 20 20
43 44 45 45 43 40 34 29 23 25 17 16 18 25 26 25 31 26 23 21 19 16 17 13 11 9 8 9 10 11 11 12 14 14 13 13 19 19 21 22 23 22 23 25
39 41 42 42 40 37 33 28 23 23 21 17 24 26 23 20 25 28 26 20 18 16 15 15 14 14 12 12 12 11 13 16 17 18 16 17 19 21 24 24 25 27 28 27
35 37 39 41 41 37 35 32 26 21 18 14 26 26 23 23 21 18 17 18 18 17 17 16 16 16 15 15 14 16 17 17 16 19 19 22 23 25 26 25 25 25 26 27
34 35 37 39 39 36 32 32 20 15 16 12 26 26 27 24 23 21 20 19 18 18 18 17 16 16 15 10 12 14 17 18 19 21 23 25 25 24 24 25 26 28 28 28
32 33 34 34 33 33 29 24 18 14 15 10 18 22 24 24 23 22 20 19 18 18 18 18 18 18 17 16 15 18 20 22 25 24 22 22 22 26 28 28 27 26 24 23
31 31 31 32 32 29 18 23 13 15 16 14 10 11 21 21 21 21 20 20 20 21 21 20 19 18 19 16 20 21 21 23 24 23 23 26 26 25 24 23 22 21 17 22
30 30 30 29 26 27 23 19 18 20 17 16 14 13 12 18 20 20 20 20 20 20 20 20 20 20 15 19 19 20 22 22 22 23 21 20 21 21 22 23 17 17 19 20
25 32 31 29 26 22 20 18 20 21 20 16 13 16 14 13 16 18 17 16 13 13 17 18 22 24 23 23 25 25 23 20 17 16 18 20 21 19 17 16 16 14 11 10
25 26 22 24 24 23 19 12 14 11 11 16 15 14 14 14 14 15 12 10 7 7 12 15 10 15 20 22 22 19 15 14 14 13 12 12 12 11 10 8 8 8 12 16
25 21 20 24 19 10 8 12 10 8 11 11 16 18 17 18 17 15 12 13 7 7 10 9 7 17 18 17 15 12 11 10 8 7 8 8 6 6 7 9 11 11 12 13
25 24 22 13 12 8 9 12 13 12 12 12 16 20 23 21 17 12 9 8 9 7 7 8 15 16 12 11 9 6 5 5 6 7 7 6 6 7 8 9 11 12 12 14
22 18 12 9 5 9 12 18 15 16 17 18 19 19 14 15 12 10 7 9 7 7 7 10 12 10 10 8 7 6 6 6 5 5 6 8 10 10 12 13 14 16 18 20
11 7 7 12 11 11 14 16 16 14 15 14 14 15 14 11 8 7 8 6 6 8 8 7 6 8 8 9 9 9 9 8 8 9 11 12 13 14 15 16 18 19 22 25
10 9 10 13 14 15 13 13 15 17 14 13 13 11 7 10 7 7 8 5 6 3 5 5 6 7 10 11 11 10 10 11 11 11 12 13 15 16 17 19 20 23 25 29
10 10 12 11 12 13 14 14 12 12 11 14 9 8 9 6 6 7 6 5 5 4 3 4 6 8 11 13 13 12 12 11 12 13 15 16 17 18 20 22 23 26 30 34

GFSNW_700_spd_042.txt.gz
Wind_Speed
64 71 70 66 62 53 51 45 46 43 44 45 50 48 33 28 22 18 17 15 20 19 21 18 18 17 18 18 16 11 17 12 8 12 7 8 10 9 10 11 8 5 5 12
52 52 57 71 66 57 55 49 40 32 42 51 48 40 36 31 25 18 20 19 19 17 20 18 18 14 11 15 15 13 13 11 12 14 9 8 16 14 14 13 9 11 5 5
56 53 47 59 61 66 54 48 39 36 43 52 46 41 34 32 28 21 20 19 18 16 20 18 15 15 15 14 14 19 17 11 14 12 15 8 9 11 14 15 12 14 21 20
48 54 50 50 63 70 53 54 52 51 50 59 42 37 32 31 31 27 21 21 22 20 18 18 17 17 14 17 19 21 19 16 16 18 18 13 12 12 10 14 17 20 21 18
47 53 55 50 73 68 51 58 47 51 24 46 43 41 42 36 32 27 24 23 22 22 18 18 17 14 16 13 17 17 18 13 13 13 11 15 16 18 20 21 20 20 20 22
46 46 49 50 80 71 63 62 54 34 50 34 47 49 42 35 30 28 24 25 20 22 17 18 15 16 16 8 12 20 13 15 8 8 9 10 13 20 18 21 19 19 21 18
43 44 56 55 71 61 71 67 50 30 37 40 62 45 38 33 33 28 25 24 24 22 23 17 14 11 13 14 12 11 13 12 11 6 5 1 12 7 11 12 11 9 11 10
40 46 55 44 55 61 72 61 40 33 40 44 46 38 38 28 32 40 24 28 28 28 23 16 13 12 13 14 15 15 11 12 11 7 11 11 16 7 6 6 1 3 3 6
42 44 50 61 63 73 74 49 39 26 41 49 52 43 42 38 35 46 28 33 28 22 20 16 10 9 10 9 6 14 15 14 13 9 4 4 3 8 7 6 5 4 9 6
42 48 50 51 72 70 64 47 39 44 42 41 52 44 39 38 33 23 35 35 27 24 22 17 11 10 10 11 10 9 13 17 16 12 6 6 8 11 13 5 4 10 9 15
40 48 48 60 71 77 65 46 49 23 36 39 45 39 35 30 26 23 32 31 25 21 15 15 10 9 14 9 8 9 7 10 12 12 6 7 11 7 4 11 10 14 21 21
42 42 52 69 78 66 39 32 39 16 32 48 50 42 37 33 30 25 24 17 18 14 13 12 13 11 14 15 7 11 7 8 5 7 2 8 8 10 8 14 18 19 20 21
46 64 67 87 61 48 38 26 17 18 31 42 39 30 30 26 29 26 22 18 15 14 15 12 13 11 14 13 16 9 10 12 11 11 6 6 7 9 13 20 18 17 21 24
54 65 77 63 62 37 40 31 23 21 31 37 35 31 32 33 30 19 22 17 15 12 12 12 14 13 11 12 9 11 11 10 8 10 12 11 12 20 21 20 23 24 23 26
67 63 70 65 38 23 17 16 21 28 22 27 29 29 31 28 26 28 22 19 18 16 15 17 18 15 13 11 12 14 14 11 13 13 19 18 25 25 23 25 27 24 23 26
55 66 56 33 33 31 23 18 19 18 14 26 26 29 31 29 26 26 28 22 19 22 19 20 20 17 14 10 16 17 17 17 18 22 22 25 25 27 26 25 23 24 27 26
55 55 45 34 35 30 30 18 19 18 20 11 18 22 27 30 27 26 28 30 28 25 22 23 21 20 18 18 16 16 19 21 21 21 22 25 27 28 24 24 25 26 24 25
49 51 43 31 30 28 15 12 14 18 19 14 13 14 27 30 29 27 28 29 27 24 22 22 23 21 20 20 20 23 23 25 24 23 25 27 24 23 24 25 23 22 22 19
39 37 41 32 28 22 11 12 10 20 16 6 10 20 27 29 27 28 25 25 24 21 25 24 22 22 17 20 24 27 27 27 27 24 23 23 23 22 21 20 19 16 14 14
34 34 37 30 25 15 14 12 10 10 12 4 8 18 21 30 29 28 25 22 19 14 21 22 25 27 27 25 26 26 26 26 24 23 22 22 20 17 17 15 12 12 12 11
36 38 29 24 22 18 13 7 8 13 8 6 10 17 12 21 29 27 20 16 12 9 14 17 15 24 25 26 28 27 27 26 24 21 17 15 14 12 10 11 11 11 12 12
36 30 21 22 19 9 7 10 8 8 8 11 16 15 15 16 20 14 20 10 9 7 10 12 8 22 19 21 22 23 23 19 17 15 13 11 9 9 10 10 11 11 12 13
29 24 23 15 15 6 6 9 9 10 13 12 19 18 17 16 16 11 10 9 10 9 8 8 16 15 18 19 19 21 17 14 13 11 10 10 10 10 9 10 12 13 14 15
24 18 18 9 9 9 9 15 12 11 9 14 17 20 18 15 15 8 7 9 7 8 7 12 13 15 17 17 19 16 13 14 12 11 10 10 10 10 11 13 15 16 16 17
18 9 7 9 9 8 10 11 16 16 14 16 17 16 14 13 8 7 7 6 6 7 9 14 12 13 16 16 15 11 13 12 11 11 11 11 11 13 14 15 16 17 19 21
5 5 7 12 10 13 15 14 15 14 15 13 14 11 8 10 7 8 8 5 6 11 11 11 11 11 12 14 11 13 14 13 11 12 12 13 14 16 17 18 20 22 22 25
8 9 10 11 13 10 11 10 10 11 12 13 8 7 7 6 6 7 8 10 11 11 9 7 7 8 11 12 12 13 13 13 13 13 14 16 17 18 20 21 21 24 28 29

GFSNW_700_spd_045.txt.gz
Wind_Speed
72 72 70 67 64 58 54 49 48 38 43 45 52 58 51 29 35 23 19 11 17 19 22 24 25 19 19 15 20 15 8 8 6 11 12 9 12 8 6 13 6 3 2 8
47 54 70 69 67 63 57 49 46 21 45 52 57 53 51 44 36 29 19 15 18 23 17 18 23 20 18 15 22 14 11 9 7 6 9 11 13 14 19 14 6 13 6 4
47 46 46 54 58 65 57 46 42 41 46 56 54 58 50 49 41 29 21 13 22 19 16 18 15 24 19 18 21 19 16 10 8 9 6 9 10 11 10 14 16 13 15 19
49 50 55 52 50 55 56 53 48 53 53 62 55 42 47 45 45 36 24 19 25 19 19 21 14 24 14 17 17 17 19 20 15 13 11 17 8 11 8 12 16 19 16 16
53 52 56 56 53 56 67 52 49 48 35 51 51 45 46 48 47 38 30 26 24 22 22 24 20 18 18 19 14 16 18 17 18 14 15 16 15 13 19 22 17 17 15 14
50 54 62 61 56 67 73 56 51 53 48 24 53 64 50 53 41 41 27 25 21 24 22 21 22 22 19 19 18 17 18 18 15 13 15 17 17 23 22 18 17 17 16 10
51 56 60 60 58 69 77 64 57 44 49 40 45 57 49 44 44 35 28 26 25 26 25 23 23 17 21 16 14 12 19 14 13 9 11 0 17 8 9 6 5 5 7 8
49 53 53 58 54 68 78 71 54 35 46 56 37 45 56 44 43 36 31 33 29 26 29 27 24 19 17 15 17 15 18 20 11 8 14 11 13 10 11 9 5 7 11 12
40 47 53 59 55 72 78 65 59 29 33 52 54 38 48 47 46 38 36 32 34 28 29 27 16 12 11 10 15 21 22 20 18 12 5 6 6 9 10 9 8 9 12 14
45 51 49 50 50 76 72 62 68 34 20 32 39 53 50 47 49 42 37 37 36 33 32 27 17 11 15 13 19 17 20 20 21 18 10 7 10 11 11 9 7 13 12 12
40 42 44 50 48 76 74 71 49 37 19 32 35 37 46 53 47 41 37 38 38 29 30 25 11 11 19 12 19 17 14 15 16 13 10 9 13 14 12 12 16 15 14 16
37 43 49 55 48 69 72 61 66 31 24 24 33 42 50 53 47 39 34 40 43 18 25 16 19 15 23 19 13 11 12 11 10 8 5 8 12 15 14 12 14 15 21 20
35 39 44 51 44 64 66 64 47 44 24 19 37 40 41 37 54 43 29 33 31 20 22 21 16 20 20 20 17 17 14 14 11 10 5 11 18 18 18 18 18 19 18 20
40 41 36 43 40 68 71 55 51 34 24 24 32 53 30 28 27 27 32 42 26 23 18 16 14 16 14 18 15 18 18 17 16 14 14 18 18 19 21 22 21 19 21 22
40 37 42 38 56 68 67 53 42 24 22 12 27 34 25 27 36 36 41 24 23 20 17 18 15 16 14 15 17 18 19 19 18 20 23 25 26 26 25 23 21 23 23 21
43 42 40 55 59 75 68 42 35 18 25 15 25 36 32 26 22 35 38 21 21 20 18 18 18 18 18 15 19 18 18 18 19 20 20 22 22 23 23 23 24 24 23 22
40 42 46 51 55 77 63 30 10 20 25 22 27 25 29 31 27 23 23 27 26 22 22 23 22 19 20 20 19 15 17 17 20 22 22 23 22 22 23 23 24 23 22 21
38 54 66 69 50 40 19 21 17 12 13 25 21 17 28 33 33 29 30 32 29 25 24 23 21 20 24 20 21 17 19 19 21 23 24 23 23 22 24 23 23 23 21 19
51 42 54 34 26 15 20 19 15 16 17 13 14 25 25 31 35 31 29 28 28 25 26 24 21 25 19 19 18 20 23 23 23 23 23 23 23 23 21 22 22 19 15 13
37 42 26 17 23 20 24 18 11 11 11 11 10 20 23 30 31 29 26 23 19 16 21 21 25 24 24 22 21 21 24 24 23 24 23 22 24 23 20 18 14 12 11 11
25 24 23 24 22 21 16 12 7 6 9 7 8 19 19 27 29 28 23 14 14 9 14 17 16 26 25 24 25 25 27 26 25 24 23 22 21 19 14 11 11 11 11 11
26 18 24 23 15 8 6 9 8 6 9 9 7 15 16 24 26 15 19 9 10 7 12 14 11 18 19 20 23 26 26 25 25 23 18 16 15 10 10 10 10 10 10 12
18 15 12 9 5 3 5 6 7 7 12 15 8 13 14 16 14 9 10 8 9 6 8 7 8 11 13 18 21 21 22 22 18 13 10 10 12 11 10 10 9 11 12 13
13 7 7 3 2 3 4 9 9 6 11 14 19 12 9 12 13 7 6 7 8 8 8 9 12 14 15 19 20 20 20 16 9 13 13 12 10 9 8 10 11 12 13 15
11 7 5 6 4 7 7 10 11 12 10 12 17 22 12 14 7 7 6 8 6 7 9 10 10 12 15 18 17 16 14 11 15 14 12 9 8 8 10 11 13 14 15 17
10 7 8 12 10 10 11 12 13 14 16 19 18 13 7 7 6 7 7 5 6 6 8 8 11 12 13 12 11 13 12 13 12 10 8 7 9 11 12 13 15 16 18 21
8 11 11 10 10 10 11 8 10 13 16 17 10 8 6 5 5 7 7 8 8 7 7 8 8 9 7 10 12 10 10 11 10 9 10 11 12 14 14 16 19 20 20 23

GFSNW_700_spd_048.txt.gz
Wind_Speed
48 68 71 70 67 64 58 53 50 43 45 45 51 58 51 29 39 32 20 15 10 10 23 21 24 24 21 19 20 23 22 20 14 13 5 21 19 17 17 11 6 5 3 9
54 45 63 69 63 67 63 57 46 30 49 53 58 53 45 45 41 42 32 21 9 11 17 27 22 24 24 22 22 25 21 10 8 7 13 18 18 16 19 16 14 14 7 8
57 50 54 56 54 53 64 54 38 36 51 58 54 58 51 49 45 44 38 30 21 18 15 13 17 22 23 22 17 25 23 21 15 18 15 14 11 13 13 11 8 13 16 16
57 50 50 49 54 51 54 50 43 55 59 65 62 49 47 39 47 50 37 33 28 18 13 20 13 17 26 24 22 27 25 20 16 12 13 11 8 8 10 13 10 5 11 22
53 50 46 52 61 56 53 57 45 53 51 61 60 53 57 50 50 45 47 39 28 18 19 18 12 16 24 25 25 22 20 18 20 21 21 20 18 15 15 16 16 19 17 14
48 40 58 57 66 60 61 58 48 46 59 39 56 69 59 55 46 50 43 34 27 23 22 17 15 16 16 22 23 23 21 21 23 20 20 17 19 24 23 21 22 22 20 14
45 51 62 53 70 61 61 62 51 47 45 50 54 55 63 51 48 47 40 36 31 24 14 20 22 18 17 19 21 17 15 20 19 10 12 1 13 16 13 15 11 10 14 15
47 63 50 60 70 64 60 59 59 44 49 48 51 34 42 46 46 43 42 41 31 25 22 21 20 20 19 26 23 20 19 19 11 8 16 8 8 10 13 14 13 13 12 13
47 47 57 62 69 62 62 61 55 39 45 52 39 45 34 45 46 42 43 43 31 26 29 29 23 18 20 19 21 22 19 19 22 12 6 7 15 18 24 18 16 17 14 11
40 44 51 65 65 64 62 69 59 46 30 30 36 47 33 26 41 45 44 46 39 33 35 29 21 22 22 19 26 23 25 25 24 23 14 12 15 11 14 17 15 20 17 16
38 40 48 70 65 60 60 73 54 52 36 29 29 31 41 31 39 49 47 43 41 38 33 34 19 14 26 24 23 26 26 25 21 20 14 13 17 21 24 18 18 17 15 12
33 37 40 59 58 57 59 75 63 42 29 33 30 35 39 45 42 47 45 45 37 29 34 24 26 21 22 23 21 22 20 22 21 17 12 14 13 20 20 20 15 11 12 12
36 38 49 56 54 49 58 77 69 48 30 26 32 34 40 40 42 45 42 45 41 35 36 35 20 23 25 25 24 21 22 16 16 17 14 13 14 14 14 15 14 13 15 16
41 46 48 48 48 47 50 73 74 54 35 26 13 27 28 39 37 40 43 38 37 39 36 40 35 20 24 24 20 25 24 21 20 21 17 18 17 18 18 19 19 20 20 20
39 38 45 53 42 45 43 67 62 55 42 10 23 25 27 33 32 33 37 35 36 34 33 41 26 26 22 25 26 24 24 24 27 27 23 22 21 22 23 23 22 23 24 24
32 34 34 29 34 28 47 65 51 56 39 18 12 21 28 33 36 36 42 45 32 35 31 29 29 30 22 22 25 23 23 24 23 22 20 20 22 23 24 24 24 24 25 24
32 34 29 31 32 35 60 55 52 52 38 30 18 19 30 42 36 41 46 39 47 41 33 29 31 26 24 21 24 21 21 19 19 19 20 22 23 24 25 26 26 26 25 24
32 27 27 27 24 45 58 41 39 57 40 28 16 15 16 32 39 41 39 26 28 34 27 29 27 23 26 19 24 19 17 16 17 20 20 22 23 24 25 25 25 25 23 21
26 24 22 22 30 50 50 40 16 10 20 12 13 18 21 35 30 33 29 29 30 22 28 26 25 27 20 23 21 21 21 19 19 21 23 24 25 25 25 25 25 22 21 19
38 33 32 29 52 55 33 25 8 11 7 6 13 22 20 28 29 28 30 23 20 17 24 30 26 29 28 24 22 21 21 22 22 25 25 24 24 23 22 22 22 21 18 15
35 32 36 34 19 35 29 7 8 7 5 7 12 18 18 26 30 29 23 16 17 14 18 23 24 27 27 25 24 25 25 25 27 27 26 24 23 22 21 20 19 17 15 13
24 30 29 19 10 7 6 11 10 7 8 12 12 14 18 20 26 17 20 16 11 8 16 19 12 20 24 25 27 28 28 28 26 25 26 24 22 20 16 15 15 13 12 10
35 28 18 9 6 5 8 8 10 9 17 19 16 18 18 18 17 12 11 9 12 7 12 8 15 18 21 22 25 27 26 25 23 22 19 16 14 15 15 15 13 9 9 10
16 9 9 5 4 5 7 10 12 12 18 16 18 17 14 19 20 8 7 9 10 11 10 13 13 16 18 21 20 19 18 19 17 14 13 15 16 17 14 11 9 9 9 11
6 6 5 5 8 10 12 12 12 13 15 20 20 16 11 10 5 7 6 10 7 9 11 10 14 16 15 15 14 13 12 12 10 13 17 17 15 12 10 8 8 8 10 13
6 6 12 11 10 12 11 14 14 14 12 15 16 13 6 9 6 7 6 6 6 8 8 9 9 9 10 10 10 8 8 10 11 12 12 12 11 10 8 7 8 10 13 16
5 10 11 10 9 10 11 14 16 13 13 17 10 9 7 6 6 7 7 7 7 8 7 7 7 7 7 6 8 10 8 8 10 12 13 10 6 6 8 9 12 15 17 18

GFSNW_700_spd_051.txt.gz
Wind_Speed
61 65 56 48 62 63 59 56 54 48 44 46 51 60 44 37 38 32 24 18 17 24 25 24 31 28 19 20 21 23 24 14 18 24 22 21 20 22 16 7 6 7 6 14
67 61 54 54 44 56 59 57 50 38 48 56 57 54 54 44 34 45 34 25 16 15 17 27 25 30 26 22 18 23 21 19 17 15 19 19 19 23 21 19 19 16 7 10
68 63 60 57 49 49 54 54 38 38 52 60 55 56 44 54 46 35 41 37 19 16 15 14 24 27 27 25 25 22 21 23 20 20 19 16 21 21 19 18 20 19 22 23
63 56 57 56 54 55 57 51 45 55 58 67 63 49 48 44 51 53 36 42 39 24 14 14 13 20 27 27 24 20 22 27 23 22 19 17 18 21 16 17 21 18 18 15
56 56 58 52 51 60 59 63 47 50 60 65 63 47 53 45 52 43 51 47 37 36 26 13 12 13 20 24 28 20 31 19 23 21 20 20 21 19 18 17 17 19 18 20
62 55 54 55 60 66 60 61 42 50 60 48 62 71 57 52 42 46 40 29 41 29 25 15 15 13 15 22 22 25 32 28 17 17 18 19 19 30 29 27 27 27 27 26
64 61 50 56 60 69 53 62 49 45 47 57 61 57 60 53 51 48 39 34 33 37 23 21 19 18 16 20 23 24 27 27 21 15 15 3 28 27 25 28 32 34 33 30
66 56 44 51 46 71 46 54 57 40 41 41 50 47 44 50 50 46 42 35 34 30 29 21 15 18 21 25 24 25 26 21 16 10 16 18 10 17 19 21 19 17 14 14
54 71 57 49 49 69 53 49 62 43 35 41 43 44 42 42 43 40 44 36 31 28 22 29 25 19 18 18 25 26 24 22 23 14 7 7 19 24 19 15 18 19 17 15
46 48 47 49 45 72 64 42 63 50 34 25 32 42 34 27 22 33 36 41 35 33 29 31 30 28 22 24 27 21 25 25 27 23 15 15 18 15 14 20 25 24 21 19
47 47 48 44 59 76 63 46 61 61 31 35 28 35 34 40 38 31 26 33 42 40 37 29 24 17 26 28 27 30 32 28 27 26 19 15 17 20 24 22 21 14 15 20
41 44 47 48 65 47 59 48 61 63 42 22 39 38 35 30 27 34 31 35 27 37 39 32 30 24 21 28 28 29 31 33 30 23 21 18 11 14 23 27 19 14 11 13
31 39 47 52 46 40 60 38 58 57 53 31 21 28 35 35 41 40 33 33 29 24 35 31 26 19 27 21 32 27 32 25 31 25 26 25 21 18 16 18 17 13 13 15
30 38 42 46 50 54 56 57 61 43 27 27 23 25 26 30 32 41 39 29 34 26 33 36 30 27 26 29 22 23 26 26 29 30 23 19 18 17 16 16 16 15 16 18
28 35 36 37 44 47 55 54 57 48 39 9 29 27 29 27 28 34 39 33 34 33 34 37 34 36 30 27 27 30 35 36 37 35 26 22 17 15 17 17 18 19 21 23
31 37 37 39 40 45 54 48 45 60 49 23 7 22 18 20 24 31 35 33 33 36 33 33 36 37 34 32 38 33 32 32 29 27 20 18 18 19 19 21 23 25 26 26
42 42 47 46 36 40 37 34 43 58 46 34 24 15 19 23 22 31 31 34 36 38 37 37 32 34 29 29 27 26 35 33 26 23 21 21 20 20 21 24 25 26 27 27
35 36 33 38 30 23 19 18 41 50 46 36 16 12 10 16 30 34 37 35 36 36 34 33 33 30 31 26 30 24 25 26 25 23 22 20 19 21 23 25 26 26 26 26
31 25 24 33 28 23 28 21 25 34 37 26 24 16 18 17 20 38 38 34 43 35 42 42 35 30 20 28 14 21 21 21 20 20 21 22 24 24 25 26 26 27 26 26
24 24 24 22 17 39 31 32 22 24 26 34 26 18 26 23 24 21 22 42 25 22 28 43 30 36 38 35 27 23 22 23 23 23 24 25 26 27 27 27 27 27 25 23
27 29 14 21 24 33 17 11 12 15 15 28 44 40 20 22 25 30 9 18 18 9 9 15 9 26 28 27 24 22 22 26 30 31 31 29 28 25 25 26 25 24 23 21
17 16 26 31 28 20 15 6 9 12 13 16 23 26 23 17 18 12 10 8 9 5 11 14 11 24 26 27 27 26 29 33 34 32 28 25 24 24 25 24 22 22 22 20
22 32 28 24 9 11 12 11 9 9 18 26 26 23 22 21 19 7 10 9 10 6 11 8 12 18 24 27 31 33 32 31 27 24 23 25 26 24 21 18 20 22 21 18
15 14 9 6 7 8 9 12 12 11 13 21 25 24 16 18 16 8 5 7 9 11 10 10 11 18 22 23 24 25 25 24 23 23 22 19 17 16 17 18 18 17 15 12
5 5 5 8 10 15 13 13 11 14 16 20 20 12 11 19 9 8 6 9 7 9 9 13 16 13 12 17 20 21 19 16 15 15 13 13 16 16 15 14 13 12 11 9
5 7 14 12 10 13 14 14 14 16 19 21 15 7 5 4 5 6 4 6 4 6 9 8 8 14 16 16 14 11 9 11 11 9 12 14 14 14 15 14 12 9 8 10
6 9 9 10 10 9 10 12 15 18 18 17 8 6 5 4 3 4 4 4 4 6 9 9 8 8 9 10 9 8 9 8 8 8 11 14 15 14 12 9 9 9 11 15

GFSNW_700_spd_054.txt.gz
Wind_Speed
58 55 48 46 49 47 44 50 59 56 50 47 53 53 50 32 38 29 19 13 16 17 20 25 27 32 32 18 31 25 22 16 20 22 18 18 15 20 17 18 6 7 6 20
58 57 50 47 60 50 52 49 54 43 54 53 61 49 47 49 43 40 30 23 14 12 14 17 25 29 26 24 21 25 23 20 17 13 17 22 22 23 21 22 18 14 6 11
59 58 50 48 57 49 55 49 43 39 46 62 60 48 45 47 49 43 41 33 24 13 12 15 12 25 28 30 23 18 25 27 24 23 23 19 18 21 24 23 21 20 23 24
59 58 51 54 58 57 60 56 43 52 51 68 62 56 45 46 51 48 44 37 40 26 13 11 11 19 23 29 29 26 27 24 26 29 24 22 22 19 18 22 18 23 25 25
54 57 50 63 63 60 67 58 49 48 61 64 62 41 49 46 46 39 47 43 35 37 26 10 9 3 13 25 29 29 27 26 25 27 25 22 20 20 21 21 24 25 23 24
51 54 48 68 63 58 73 60 51 45 56 49 62 70 44 47 46 47 42 36 42 31 34 25 22 16 14 15 14 27 27 24 24 25 27 23 15 25 25 25 26 28 30 29
48 54 47 70 62 63 70 54 64 44 49 50 66 59 56 40 49 46 41 27 23 38 33 23 24 21 21 19 19 21 30 28 28 22 20 3 25 26 25 28 32 33 35 35
48 49 50 70 68 64 64 50 57 56 39 44 41 48 42 45 46 43 41 31 34 12 18 28 27 24 20 21 20 23 27 28 21 16 19 20 17 21 25 21 24 23 25 23
47 46 61 60 64 63 61 56 55 56 39 36 33 43 38 45 49 46 44 32 12 35 22 19 18 10 12 19 24 25 26 28 31 14 8 8 25 22 19 18 29 22 18 16
40 60 59 55 55 62 55 50 63 54 38 28 28 35 43 34 37 45 43 38 34 28 29 22 17 27 18 17 27 28 28 27 28 25 16 17 19 16 13 18 29 19 19 20
39 62 54 47 48 56 63 65 50 59 43 35 22 32 31 32 39 35 24 25 34 37 37 28 22 17 24 23 21 33 32 30 28 27 19 14 21 18 24 28 24 20 18 18
51 58 52 49 51 52 62 66 55 60 57 30 24 29 32 27 17 27 29 22 14 34 27 28 18 19 21 23 33 30 30 33 31 29 28 28 20 20 20 16 21 23 16 13
47 47 48 51 43 45 48 58 66 29 54 26 28 23 24 28 31 30 33 32 16 12 32 27 27 18 25 23 26 26 31 30 33 32 33 31 28 28 26 25 20 21 17 13
36 40 42 40 38 45 52 46 52 34 44 46 17 27 35 26 28 32 31 29 28 26 21 27 29 29 26 24 31 26 28 30 35 35 33 29 31 28 25 21 20 19 17 16
30 33 41 46 47 44 42 36 40 44 44 44 31 11 20 34 40 37 37 34 31 24 31 25 27 29 31 24 27 33 31 30 31 35 28 28 31 24 21 21 20 18 18 18
27 25 30 39 35 38 44 39 28 40 52 22 34 19 17 22 20 22 31 30 31 34 28 28 28 29 30 32 35 33 28 31 31 33 36 34 25 21 19 19 19 20 21 22
26 26 28 33 32 34 30 30 23 41 46 18 21 20 20 19 19 20 25 29 32 36 33 35 29 25 27 36 42 36 34 34 32 34 31 30 27 22 21 22 22 22 23 25
36 32 25 23 24 30 18 26 24 37 41 21 7 10 25 25 19 17 21 26 33 34 36 35 37 32 29 31 41 36 33 30 31 36 29 30 27 23 23 23 23 24 26 28
39 38 31 24 32 33 23 27 22 36 24 13 13 8 5 7 10 12 20 24 27 26 35 38 32 35 33 37 40 39 30 31 22 24 30 28 27 26 24 24 24 25 28 29
26 33 28 30 26 22 22 19 22 23 28 34 23 22 17 10 13 15 12 23 24 21 30 30 41 37 37 27 26 23 26 28 22 22 25 27 26 25 24 26 26 27 28 27
30 32 30 28 25 34 17 17 17 15 18 25 40 30 23 16 11 16 11 11 9 17 24 27 31 40 48 42 36 27 28 21 23 27 28 25 23 22 23 25 26 27 28 27
33 29 28 26 24 4 6 14 17 12 16 10 13 24 24 32 30 19 18 13 11 7 21 18 13 31 29 37 30 40 24 26 33 25 24 30 28 28 27 27 23 22 20 22
27 23 21 12 5 5 6 9 17 12 10 16 15 14 16 21 24 16 10 8 7 8 9 6 11 13 18 19 23 31 26 16 19 29 32 29 25 22 18 17 17 19 20 23
20 11 11 4 6 8 8 12 14 13 14 18 17 18 9 13 9 5 2 5 8 8 6 7 9 12 15 21 28 32 33 32 23 24 23 18 16 17 19 18 18 19 22 21
6 5 4 7 7 8 9 13 15 14 15 18 20 19 14 11 7 6 5 5 4 6 6 9 13 14 16 17 18 20 20 19 16 16 17 19 17 12 12 12 15 16 15 15
7 10 16 14 9 11 12 15 15 19 20 21 18 10 5 5 5 5 3 3 1 3 3 3 6 11 13 14 15 16 17 16 15 14 11 9 10 12 13 11 13 14 13 12
8 12 14 12 11 12 11 12 18 21 21 17 6 5 2 4 3 3 3 1 1 2 4 9 10 7 8 10 11 10 11 14 9 5 5 9 11 12 12 12 12 12 10 9

GFSNW_700_spd_060.txt.gz
Wind_Speed
50 49 50 47 47 44 43 40 49 41 45 47 55 55 48 27 33 31 23 17 27 14 17 23 25 27 25 15 32 37 27 17 15 15 14 17 15 14 13 10 6 7 5 12
53 51 51 51 50 52 48 51 47 40 40 55 53 52 47 43 29 35 26 23 18 22 16 12 25 24 27 12 31 35 33 21 15 13 15 17 14 17 15 14 14 15 8 6
51 53 51 53 54 54 55 56 38 37 38 58 69 39 39 45 38 26 30 30 18 18 16 20 11 25 22 31 13 30 33 24 30 22 17 14 16 20 21 18 13 16 18 20
53 52 52 54 57 57 60 64 47 60 59 56 63 47 40 44 37 39 30 28 29 20 12 14 15 20 21 24 33 22 31 30 25 24 19 18 20 19 19 23 23 22 18 17
56 55 58 56 58 60 63 64 54 56 36 56 69 59 46 43 47 38 38 29 36 26 19 11 16 12 18 15 27 30 31 22 23 23 21 21 23 21 21 23 22 21 21 21
54 57 55 55 58 65 69 61 50 45 49 39 50 59 55 39 42 35 35 33 27 39 26 17 18 10 10 14 17 25 27 25 20 19 17 16 20 28 23 21 25 23 22 21
54 58 57 55 60 68 66 73 55 44 37 33 48 51 44 44 38 39 27 30 36 37 33 34 28 27 23 17 14 15 17 25 22 17 15 7 21 18 18 21 23 22 22 23
56 56 59 56 50 67 63 71 64 44 37 37 33 42 47 36 34 37 33 26 24 28 35 33 24 21 25 26 21 19 17 22 19 16 19 19 18 21 21 22 24 21 23 24
57 55 55 56 53 66 62 66 66 43 41 36 33 27 38 43 40 37 32 28 25 26 20 14 17 16 15 10 14 22 21 26 19 16 10 9 19 22 20 19 27 20 21 16
52 51 53 53 54 66 62 63 59 54 38 24 30 32 33 42 37 35 33 28 33 28 25 20 12 17 19 14 13 15 25 26 27 23 11 15 16 16 15 16 30 15 17 16
50 47 44 50 57 64 58 60 56 51 37 30 33 26 26 37 35 43 33 29 32 34 24 17 11 12 14 15 16 18 20 20 22 19 14 15 17 19 23 25 20 20 19 19
43 41 47 48 51 57 58 60 54 51 31 23 39 32 30 29 38 36 35 40 36 29 21 19 14 14 14 18 22 26 21 23 18 20 20 23 18 17 20 20 21 22 22 22
42 43 47 46 50 56 49 51 53 49 45 31 26 28 29 31 34 42 34 40 38 38 35 23 20 14 18 23 27 22 34 34 36 35 28 27 24 23 24 24 26 26 26 25
35 38 41 48 53 55 58 55 48 45 39 30 18 33 25 33 39 42 39 28 27 28 23 29 27 24 25 22 23 26 25 24 36 43 38 29 26 27 27 25 25 23 25 26
35 36 42 46 49 51 46 48 50 36 35 20 30 25 26 25 35 42 43 38 34 28 22 26 30 26 20 22 30 35 30 33 32 35 27 33 24 22 25 26 25 25 27 25
36 39 40 38 51 50 39 36 38 40 35 14 20 31 28 25 30 34 38 40 31 35 29 28 29 28 29 22 31 30 28 34 31 31 30 32 31 27 26 28 27 25 27 27
44 42 37 35 37 38 34 30 36 35 26 29 11 14 32 30 33 26 31 30 35 40 32 30 25 28 30 35 38 25 22 27 30 30 25 31 27 27 27 27 28 30 27 25
34 31 31 34 31 25 25 25 25 20 14 23 11 10 15 31 37 29 30 30 30 32 36 35 35 29 31 31 37 42 38 32 23 22 29 35 33 33 31 32 34 31 28 28
32 32 28 27 26 24 22 23 17 15 17 14 8 21 15 29 32 34 35 30 25 27 34 36 31 31 27 31 30 33 25 20 20 27 33 34 32 35 35 34 34 30 30 30
32 30 28 27 27 22 21 22 18 17 18 20 22 30 13 15 33 30 31 27 20 14 30 26 35 44 40 34 23 14 14 15 19 24 26 29 33 35 38 37 32 30 32 35
30 25 25 29 30 26 10 13 12 16 11 20 24 31 6 18 22 26 15 16 12 8 7 21 13 21 26 36 38 40 41 38 35 33 30 30 32 36 36 29 30 31 35 37
30 20 33 32 14 9 8 10 9 13 20 11 22 20 11 15 20 11 11 9 9 5 9 10 6 14 16 18 22 26 32 32 29 27 27 26 26 29 31 30 25 28 32 33
17 22 19 10 7 7 7 11 10 12 25 18 22 27 19 12 7 5 8 7 6 6 9 5 7 10 14 18 20 23 24 26 29 29 32 29 28 26 24 22 24 26 27 29
19 11 7 6 8 8 10 15 16 20 15 15 16 21 17 11 10 5 4 6 5 7 5 4 7 8 7 3 2 5 10 14 14 17 14 9 7 11 14 16 14 15 17 18
5 6 6 8 5 8 17 17 16 14 16 20 17 14 8 8 4 5 4 5 3 4 2 4 8 7 7 5 4 4 6 9 10 11 9 10 7 7 7 8 10 12 12 11
3 5 6 7 8 15 17 23 25 17 19 20 19 10 7 7 5 5 4 4 3 1 2 4 3 4 4 4 4 4 4 4 7 8 7 4 3 4 4 3 5 5 8 10
3 7 9 9 12 14 18 21 22 22 24 26 14 8 5 8 6 5 5 6 4 2 1 2 4 6 6 5 5 5 8 9 5 3 3 3 3 3 4 3 5 7 8 8

GFSNW_700_spd_063.txt.gz
Wind_Speed
45 45 43 43 41 38 39 42 49 42 40 43 50 66 56 32 39 29 26 20 27 19 17 26 18 28 30 23 34 37 31 20 21 24 18 21 18 21 21 18 15 12 14 18
54 51 49 48 47 45 45 50 47 38 46 53 50 62 70 39 31 37 30 23 20 18 15 15 29 21 24 14 35 36 32 23 22 19 17 17 20 19 20 21 17 15 12 12
51 56 53 51 51 52 51 56 46 43 45 54 50 56 53 50 45 33 33 28 21 21 19 19 9 24 21 25 17 34 35 26 28 25 24 21 23 22 23 23 18 20 22 20
47 49 57 54 54 58 58 66 46 60 60 64 57 48 49 52 46 39 36 31 28 19 14 17 16 18 23 25 29 31 31 36 27 28 22 17 19 23 25 27 27 27 22 22
47 49 52 54 60 63 66 69 53 59 39 55 49 44 53 49 49 47 36 36 33 23 17 15 15 10 13 16 24 26 30 29 30 28 25 25 22 22 24 24 24 26 26 25
48 53 56 59 57 64 70 72 61 45 52 36 47 51 49 46 47 46 41 34 25 30 20 17 23 19 22 14 11 26 25 28 26 28 27 26 30 27 25 24 23 23 26 23
54 54 60 61 61 62 67 68 60 40 40 39 52 45 46 53 41 45 41 34 32 23 30 25 22 22 23 12 13 19 23 25 25 18 18 13 23 19 22 26 26 23 22 23
53 55 60 58 59 64 58 65 65 49 39 41 32 38 36 43 42 37 41 27 33 24 24 24 20 21 21 21 16 14 19 21 23 20 22 18 18 22 20 20 22 21 21 22
51 54 59 57 55 78 55 59 66 49 40 38 30 29 35 46 46 37 38 39 23 26 23 17 17 18 25 14 14 18 16 18 25 15 21 18 27 25 15 16 25 21 20 17
49 56 57 57 53 59 60 59 66 54 36 16 27 28 32 42 40 44 36 40 29 33 27 23 23 25 23 28 20 17 21 19 26 26 14 17 18 16 17 18 25 9 11 14
44 54 53 54 58 60 62 59 64 51 30 30 18 21 23 33 46 41 32 37 29 28 22 21 14 13 25 25 25 21 25 22 21 22 20 16 18 20 23 25 17 16 15 14
45 53 49 50 48 55 48 59 55 58 28 20 28 24 24 32 41 35 37 35 30 24 22 20 19 13 17 19 25 19 16 21 27 18 17 22 16 17 20 20 19 18 18 16
48 47 46 45 44 52 50 54 49 57 51 25 25 28 26 30 46 39 38 41 22 28 24 19 16 16 18 18 22 27 26 18 22 17 22 18 16 14 18 19 19 19 20 21
40 39 40 46 47 47 49 53 40 43 34 19 15 17 28 30 49 43 45 32 21 24 26 25 20 22 16 15 17 22 24 18 22 32 31 28 28 32 24 23 23 24 24 24
39 39 40 44 53 54 46 38 34 44 29 18 11 12 18 33 45 37 34 39 29 28 27 29 27 22 17 16 22 26 23 23 25 26 19 25 27 28 28 30 27 22 24 25
40 36 39 48 47 43 41 34 33 36 32 8 15 20 13 30 43 45 42 38 32 27 25 24 24 21 21 16 23 22 26 26 26 27 22 25 24 22 22 23 24 26 25 25
31 36 36 40 40 38 36 33 33 29 29 20 4 5 18 19 21 43 41 41 31 25 22 23 17 18 22 24 25 27 18 18 23 23 25 34 28 31 34 28 27 28 29 27
39 40 46 41 37 31 34 24 21 26 23 23 6 5 9 19 20 25 33 40 39 28 24 19 21 20 22 21 26 27 31 30 25 22 27 31 32 33 30 29 29 31 32 32
33 30 28 32 33 26 20 23 28 29 19 11 12 9 9 22 26 26 31 30 33 25 32 26 18 25 22 17 25 27 22 21 21 22 26 33 31 29 32 36 39 38 37 35
30 32 33 29 25 21 18 17 20 22 16 17 19 16 16 21 29 26 21 13 22 19 25 23 28 28 23 22 22 16 20 24 23 24 25 26 27 28 31 34 36 39 40 42
30 25 23 27 25 21 18 12 11 10 10 19 22 21 23 17 14 22 18 12 12 10 12 23 17 27 29 39 38 38 39 33 29 28 29 27 26 30 35 37 38 39 39 37
22 20 28 26 20 11 6 9 8 6 9 9 16 25 26 25 8 27 32 18 14 8 12 14 7 16 20 28 30 32 35 39 39 40 37 37 39 35 35 35 33 32 33 33
21 21 20 11 5 4 7 7 5 7 10 11 7 13 25 26 15 8 6 7 6 7 11 8 6 9 11 14 18 22 22 22 22 24 26 30 33 33 34 35 33 30 27 26
17 6 4 3 3 3 5 5 7 10 10 14 7 12 10 8 1 4 5 5 7 8 6 4 4 8 8 9 7 5 9 13 17 19 20 16 14 14 12 9 12 12 12 12
3 3 1 1 3 10 10 11 11 14 13 13 14 16 16 10 3 2 3 6 3 3 3 2 2 3 3 4 3 3 3 4 5 7 8 9 10 8 6 5 4 3 3 4
5 3 5 9 8 7 13 17 17 17 15 12 13 5 5 3 4 4 4 3 4 2 1 1 1 2 2 3 4 4 4 5 5 5 5 6 5 4 4 6 8 6 4 2
7 3 4 7 4 7 15 19 17 16 13 13 9 4 4 5 3 4 5 6 4 4 2 2 2 2 2 4 6 9 12 9 8 8 9 8 9 9 8 6 5 1 2 3

GFSNW_700_spd_066.txt.gz
Wind_Speed
47 42 39 43 42 37 38 41 46 35 35 45 48 61 61 51 41 38 32 27 35 25 26 20 26 27 22 21 39 40 43 22 23 26 26 24 24 22 19 15 10 11 7 9
45 45 43 43 46 45 46 49 48 35 38 55 59 55 58 40 39 31 36 31 22 24 25 24 22 26 25 24 27 43 41 39 20 23 26 25 28 25 22 24 21 20 12 8
45 50 46 48 49 51 52 54 47 49 43 54 57 54 48 41 46 43 32 31 24 29 22 19 13 28 25 28 21 31 33 34 29 20 28 27 25 24 24 28 24 15 18 14
43 42 55 53 54 56 59 66 50 61 60 61 65 43 26 37 41 40 32 31 30 30 25 21 20 10 22 31 24 32 29 34 32 27 26 28 27 26 26 27 24 27 21 22
52 50 47 58 55 55 65 68 51 59 37 56 50 49 46 33 39 45 51 34 25 31 26 25 27 23 19 21 32 33 30 25 36 27 31 27 23 27 30 27 27 25 26 26
47 48 54 58 58 60 66 73 66 38 52 33 47 57 51 45 31 41 46 43 30 30 21 25 7 21 19 18 17 24 28 28 27 30 29 26 32 32 23 23 26 25 26 23
44 48 50 59 58 62 74 70 66 42 37 43 43 50 46 39 37 40 42 46 35 32 22 15 18 22 26 26 25 20 21 25 33 24 26 23 27 27 24 24 25 22 23 21
41 47 49 50 63 59 74 69 66 63 44 40 40 30 42 39 31 38 40 43 42 31 29 21 13 19 20 25 23 24 23 20 27 24 26 23 28 19 22 24 27 23 25 23
42 45 50 47 56 53 59 66 63 59 49 38 33 31 38 42 39 36 38 44 33 34 30 29 15 13 16 17 22 25 25 20 28 19 21 14 23 23 16 22 26 21 19 19
47 45 51 52 57 56 52 77 57 55 40 30 32 38 37 38 36 40 43 47 32 43 40 19 18 18 17 18 17 18 26 28 31 28 17 17 19 27 25 26 21 14 17 17
44 46 50 53 53 55 54 60 53 59 36 43 27 37 31 36 36 44 48 35 38 35 29 31 15 17 21 19 25 23 27 20 27 27 24 19 11 20 30 29 25 25 14 15
40 41 48 52 53 50 51 57 50 49 49 34 31 38 26 24 36 38 39 46 29 28 29 21 20 14 20 25 27 26 30 31 24 20 26 24 22 26 19 21 20 19 15 19
37 41 48 50 50 49 49 50 46 37 51 42 28 28 26 29 32 41 38 43 36 27 36 20 17 17 22 24 26 29 25 20 30 15 31 14 11 20 22 21 23 26 25 22
39 42 46 44 45 44 39 42 49 44 43 13 39 27 26 28 33 39 43 41 28 36 27 31 23 27 22 26 23 28 33 19 15 22 21 17 16 17 13 18 22 25 23 21
41 40 39 41 39 40 37 41 39 43 47 17 14 20 23 25 30 38 39 46 32 47 32 32 32 26 18 17 19 26 21 20 21 21 19 15 16 18 22 32 33 25 30 28
33 37 37 36 31 38 39 37 32 41 42 13 17 18 15 19 29 34 43 41 34 29 31 43 21 20 19 13 23 24 26 24 22 23 22 26 22 19 22 22 20 21 25 24
33 30 30 34 31 35 34 29 35 32 20 7 7 4 21 13 17 28 41 44 37 33 35 23 28 30 25 23 26 19 14 15 15 17 20 25 23 28 31 30 28 28 25 23
33 34 39 41 41 32 27 26 27 31 27 12 4 3 7 16 16 24 30 40 47 24 12 14 20 18 23 22 22 28 25 25 25 22 20 24 27 29 31 29 30 31 29 27
31 41 44 38 24 26 24 18 21 21 15 11 11 7 4 7 12 13 23 35 30 24 22 17 14 23 15 11 11 16 16 17 21 19 16 24 26 29 28 29 25 26 30 28
35 33 32 32 24 22 16 12 19 22 17 9 9 16 9 5 9 13 19 29 22 23 39 22 26 21 20 21 20 23 28 28 25 19 24 26 25 30 29 23 22 25 27 27
29 31 20 25 25 22 12 8 9 8 6 9 15 11 11 12 10 11 20 14 24 16 24 26 19 23 28 27 34 34 32 30 30 27 25 26 25 29 32 29 25 28 31 34
24 24 28 26 14 7 5 7 5 3 4 2 5 13 13 10 9 4 6 9 5 8 21 23 10 19 27 32 37 38 37 39 40 39 41 37 37 35 33 32 32 36 34 30
28 26 12 6 5 4 4 5 4 5 4 6 3 5 8 10 9 3 6 6 10 9 15 11 10 17 17 18 22 24 26 31 34 32 30 29 29 29 37 42 40 36 31 25
19 9 5 4 3 4 4 10 6 9 7 9 5 5 5 10 4 5 5 8 8 4 5 3 2 7 8 10 14 13 16 20 23 21 20 19 18 18 20 19 16 12 9 8
6 5 4 5 4 3 3 3 9 9 10 12 6 3 8 11 11 6 3 2 4 7 4 2 4 3 6 8 9 9 8 6 7 8 8 8 8 8 8 7 5 4 4 5
5 5 5 3 5 8 10 9 11 11 11 13 8 5 2 7 4 1 4 4 5 5 3 2 2 3 4 5 6 6 6 6 6 6 7 7 7 6 6 8 9 9 8 7
7 7 4 2 4 4 9 14 17 17 13 14 7 4 6 4 1 4 6 5 4 5 2 2 3 4 4 5 5 7 8 8 9 10 11 10 11 11 12 9 10 8 7 6

GFSNW_700_spd_072.txt.gz
Wind_Speed
35 35 35 34 34 32 29 33 37 40 33 38 51 62 45 43 10 22 30 40 34 24 18 16 17 15 21 15 22 40 44 21 27 27 24 27 29 33 35 17 9 16 15 8
38 40 41 39 38 36 35 37 40 39 39 52 57 47 50 49 37 29 31 42 39 35 30 12 14 21 10 19 18 29 34 26 19 23 28 37 27 25 37 34 22 27 16 10
42 42 42 42 43 42 40 43 42 47 50 57 52 48 46 36 39 45 38 37 32 20 28 30 16 23 11 15 19 21 26 37 39 25 27 20 8 26 33 34 31 25 27 22
44 44 43 40 38 39 44 50 50 55 50 64 53 45 45 45 39 33 31 46 45 39 30 21 25 23 21 14 14 15 25 33 33 38 29 29 17 19 21 37 37 27 32 29
42 39 36 36 37 36 49 56 63 51 50 39 57 56 54 39 33 40 37 38 30 32 37 29 17 20 23 14 14 13 28 22 33 30 33 31 23 24 28 28 24 29 30 25
40 40 41 43 41 43 52 57 62 52 48 40 41 64 58 37 35 31 34 34 33 36 26 22 17 14 20 18 15 20 12 13 18 25 29 22 24 38 35 27 19 18 29 29
38 41 42 43 47 53 57 60 61 55 50 50 66 46 44 49 35 41 30 21 27 25 20 23 19 16 21 21 19 22 24 17 16 17 17 9 22 28 27 27 29 26 18 27
37 38 43 45 48 55 53 59 59 65 61 55 47 49 45 33 38 42 29 20 17 12 16 20 23 21 24 23 26 24 17 30 26 20 26 13 12 17 21 25 29 29 18 18
39 41 40 43 48 52 56 56 58 46 64 59 53 46 44 34 31 33 40 28 18 18 16 23 18 8 10 8 11 23 26 18 33 15 13 9 13 26 16 10 23 20 14 18
42 40 43 41 45 52 55 57 57 52 35 62 44 53 46 41 33 25 28 30 29 22 20 27 26 22 8 8 9 17 17 25 23 13 14 6 8 9 20 29 23 17 26 21
39 40 39 42 44 48 54 52 47 46 27 39 44 40 39 31 35 37 29 30 35 33 30 31 26 22 24 21 17 18 20 16 24 19 15 8 13 10 16 16 11 16 19 21
40 43 38 41 42 44 49 49 44 38 39 34 31 29 21 20 19 22 25 36 23 38 25 27 25 21 18 31 27 21 20 32 30 22 21 19 16 29 9 20 15 16 14 20
42 45 41 40 40 41 43 46 41 37 45 31 44 33 25 22 22 25 27 35 37 21 34 24 27 17 28 20 28 26 21 20 24 23 27 23 25 28 25 24 19 14 14 15
39 42 41 39 37 40 41 41 37 35 49 22 39 45 33 27 25 27 27 31 35 26 22 26 28 28 19 34 32 29 32 21 23 26 25 24 27 19 25 27 35 26 21 17
36 38 38 38 36 41 38 30 39 43 27 24 39 39 40 42 38 30 30 27 31 31 27 30 28 32 31 20 26 29 19 28 29 29 22 23 18 21 11 16 30 36 23 21
34 37 35 37 35 33 33 33 41 48 9 27 31 29 27 31 29 29 29 25 27 32 27 31 34 28 30 33 26 25 30 25 17 17 22 17 13 9 7 8 6 8 13 17
39 39 38 35 37 36 38 33 34 31 23 20 19 18 20 35 16 20 17 15 21 27 22 24 25 27 30 36 29 15 20 24 28 29 20 20 16 14 13 14 13 19 23 25
41 39 37 37 34 24 24 24 35 23 25 19 9 15 21 24 15 12 14 16 20 26 29 30 30 19 24 27 28 31 22 24 23 27 28 26 19 17 16 18 22 24 24 26
36 39 38 33 24 26 33 39 30 23 13 9 12 18 19 20 18 16 12 13 19 19 23 28 27 23 11 23 31 19 36 29 25 26 24 21 19 20 21 21 22 24 25 24
35 35 35 33 27 34 29 23 22 25 21 21 18 12 17 14 15 13 10 9 10 6 15 18 28 20 20 19 23 19 20 22 27 31 26 18 20 19 19 18 20 21 20 20
31 38 41 34 33 33 16 10 8 8 8 10 10 9 7 7 6 9 9 6 7 7 10 16 14 18 15 20 26 11 15 21 21 21 23 23 21 20 21 22 21 20 18 19
30 33 32 26 16 9 8 8 8 7 6 10 10 8 8 8 8 5 0 8 9 5 15 9 8 12 21 25 27 27 23 16 16 18 20 21 23 25 26 28 30 30 30 32
27 25 15 7 6 6 6 6 7 8 10 10 10 8 10 9 8 3 4 4 4 5 10 6 2 9 17 20 23 19 22 23 24 28 31 32 32 33 34 34 35 33 32 27
15 9 8 5 6 7 9 14 14 14 11 8 8 8 6 6 7 2 2 4 3 3 4 2 5 6 8 9 15 16 20 23 24 27 26 20 19 20 21 21 23 22 22 20
6 5 6 10 16 15 15 14 14 14 12 10 9 8 7 6 3 3 3 2 3 4 2 4 7 7 6 5 8 10 13 16 15 15 14 12 12 14 16 17 14 12 13 15
7 7 14 16 15 14 11 11 13 14 14 12 7 6 4 4 2 2 3 3 3 3 2 7 8 7 5 3 2 2 4 5 7 7 6 7 7 8 10 12 12 12 12 12
5 6 9 11 10 9 9 12 12 13 12 11 2 4 3 3 3 4 4 6 6 1 4 5 6 6 5 3 2 5 7 9 13 13 14 15 16 16 15 13 15 13 13 12

GFSNW_700_spd_075.txt.gz
Wind_Speed
43 38 35 34 32 30 32 33 37 39 34 39 47 53 53 43 11 29 30 26 30 25 17 12 11 18 5 6 13 17 38 29 34 21 11 18 30 28 29 18 5 6 10 19
34 33 33 33 36 34 35 38 39 38 29 44 51 49 43 46 46 27 27 25 24 27 23 17 10 17 15 15 12 5 16 30 19 20 33 35 24 31 23 20 21 27 11 20
34 35 36 36 38 39 39 40 41 38 38 46 47 50 42 41 44 47 39 31 23 21 17 20 21 19 16 16 14 11 14 31 35 28 14 22 21 29 36 27 27 23 31 34
35 38 39 40 42 44 43 44 45 47 48 53 51 46 43 43 42 37 37 48 43 31 21 21 26 27 25 30 22 11 11 23 32 37 35 28 26 26 29 32 36 33 33 38
32 36 40 41 42 42 44 51 54 49 56 41 51 47 52 43 36 38 32 30 26 17 34 42 13 14 14 24 22 17 6 8 26 33 37 30 33 33 31 25 17 25 37 31
37 37 37 39 38 39 45 54 56 50 44 48 45 57 52 43 41 41 35 29 26 21 20 13 17 25 20 18 16 20 18 3 7 19 26 24 24 36 40 40 26 9 22 26
35 36 38 41 45 44 49 51 55 51 52 51 60 44 44 47 36 34 30 18 24 17 10 9 22 27 24 20 18 16 19 16 3 2 12 5 20 27 25 49 33 28 24 23
38 39 40 42 42 49 50 54 51 59 55 41 45 42 42 39 31 35 33 28 22 6 16 16 11 23 27 29 26 19 20 16 7 5 18 10 7 7 17 22 32 23 28 21
36 37 36 36 39 45 49 48 53 48 57 57 42 44 44 36 32 29 33 21 18 22 16 16 20 8 14 6 7 19 20 17 14 11 6 5 4 10 14 11 29 31 17 17
37 38 39 38 36 40 50 56 51 47 45 53 45 44 40 36 31 28 25 19 27 27 23 19 21 23 14 8 6 9 20 23 27 18 14 12 7 10 18 18 9 13 11 21
34 37 38 41 42 40 50 54 54 49 44 43 31 43 46 41 36 34 28 24 27 34 33 23 16 17 23 19 8 5 11 9 12 11 6 9 7 11 14 20 19 15 22 17
34 36 37 39 43 42 47 54 55 51 43 18 46 29 26 36 35 25 30 26 23 35 27 29 13 21 14 25 18 22 13 14 10 11 12 13 10 12 18 16 17 12 14 19
36 38 41 39 42 43 46 51 52 45 42 44 23 34 32 24 28 27 26 26 33 18 33 27 23 16 21 24 14 20 30 27 21 18 21 21 22 13 20 19 18 17 17 11
31 32 40 41 41 45 46 48 47 43 33 33 24 27 28 30 30 30 29 24 21 26 17 30 26 21 20 21 20 29 24 22 26 21 21 24 23 21 19 21 22 24 29 28
33 37 39 38 41 41 44 38 33 35 29 32 17 30 34 27 28 28 23 18 17 24 31 27 20 21 20 20 21 26 27 26 29 32 29 31 24 20 18 16 13 17 24 27
37 41 38 39 41 42 36 30 34 40 36 18 31 29 32 32 28 24 20 17 18 21 28 30 25 25 19 13 25 31 32 19 28 27 18 25 25 20 16 16 18 17 9 19
38 39 38 37 37 35 36 32 36 40 35 37 17 35 33 30 27 24 23 21 19 21 24 28 27 24 23 26 30 24 22 30 16 18 20 20 17 19 18 17 17 12 10 7
33 36 35 32 31 29 28 21 33 38 17 27 11 17 28 30 28 25 24 27 26 28 28 27 28 19 18 17 25 29 29 27 22 11 15 21 24 23 18 19 19 18 15 16
38 39 39 34 35 29 24 24 17 18 11 5 16 22 19 27 24 20 12 9 9 9 14 16 17 21 15 21 20 21 24 30 32 25 19 18 19 22 24 21 19 19 17 18
39 31 30 29 31 27 32 29 26 21 15 12 20 19 19 28 25 17 12 10 11 7 16 15 23 24 26 27 26 26 19 20 27 39 24 18 20 19 19 19 18 19 18 20
23 25 39 42 45 39 23 13 9 9 13 21 21 16 22 18 21 20 14 8 8 6 9 14 10 19 26 25 21 21 14 13 25 15 21 21 22 21 21 21 21 20 21 20
24 33 33 25 13 9 8 8 9 8 7 15 18 18 16 17 17 11 11 7 9 5 8 11 6 12 22 26 24 22 22 21 18 14 21 22 21 19 20 21 22 23 25 28
23 22 16 7 6 7 6 7 9 8 15 18 18 16 15 15 8 6 6 4 4 6 14 6 5 7 12 17 21 18 17 17 17 18 15 18 16 23 28 30 31 32 32 33
9 6 6 5 5 7 11 21 21 18 16 16 15 14 9 9 8 4 4 4 4 3 3 2 3 4 7 10 11 12 14 15 17 17 18 17 22 23 24 22 22 21 23 26
3 5 6 9 18 21 21 21 22 18 14 13 14 11 10 9 4 4 4 4 2 3 4 3 5 5 4 4 6 8 10 13 14 12 10 11 12 13 13 14 14 13 13 13
4 7 19 19 18 18 18 18 17 17 12 14 8 6 5 4 3 3 2 2 3 5 3 2 4 5 4 3 2 5 6 4 3 4 4 4 5 6 6 11 12 11 10 10
8 13 16 15 14 12 13 14 13 13 13 9 4 3 3 4 3 4 3 5 7 3 3 4 5 5 5 5 3 3 4 5 7 10 12 12 14 14 14 15 17 14 13 12

GFSNW_700_spd_081.txt.gz
Wind_Speed
33 32 31 30 28 24 23 25 28 24 25 36 38 47 41 23 15 22 27 25 21 20 18 16 9 9 10 7 12 6 4 6 18 24 10 10 24 32 39 18 7 19 17 19
34 34 33 32 31 28 26 31 31 30 30 39 46 36 41 39 25 21 17 23 24 22 19 10 4 11 17 11 12 8 6 2 5 9 25 27 21 20 28 41 24 24 12 6
39 39 39 39 38 35 32 34 39 37 43 44 44 44 33 30 33 31 23 22 23 23 21 18 10 15 15 19 15 15 19 16 10 10 10 8 22 23 21 27 29 33 37 21
33 34 35 35 35 36 40 45 44 42 30 48 47 38 37 37 35 29 29 33 30 21 19 19 21 21 22 24 15 19 18 21 22 26 29 29 28 23 25 32 31 25 24 26
24 23 23 27 34 36 44 51 49 33 49 33 41 46 45 39 32 35 33 32 27 27 34 32 30 25 19 13 10 12 6 11 16 29 25 29 36 36 32 26 34 37 27 25
27 26 26 28 29 37 45 47 54 39 46 30 42 43 45 38 34 34 33 27 24 25 19 13 14 16 17 20 24 25 20 15 9 12 30 26 24 43 35 33 35 29 27 29
32 32 31 29 31 35 46 49 54 51 34 38 41 39 35 35 32 29 27 24 26 21 10 12 15 21 21 22 24 27 26 16 11 18 28 4 4 14 22 31 31 31 31 32
29 31 31 32 32 36 40 51 49 53 49 36 32 34 36 34 35 35 33 26 20 18 12 12 10 12 15 20 24 25 25 21 9 5 7 15 6 2 2 10 13 11 16 17
26 27 30 32 33 36 40 44 48 49 53 57 47 40 35 36 36 31 30 27 23 15 14 5 5 4 4 3 5 12 22 22 20 8 4 3 14 9 9 7 12 10 10 12
30 28 29 31 33 33 41 43 43 46 49 48 39 48 42 31 30 27 20 19 28 25 20 17 13 8 9 5 5 3 21 25 29 22 8 8 9 9 11 5 5 11 7 13
28 29 32 31 33 34 38 41 45 32 36 24 33 40 43 38 30 27 24 21 23 23 21 17 10 11 10 11 18 2 4 15 17 22 11 6 5 5 5 8 7 10 8 13
31 30 32 37 35 35 39 39 41 43 36 14 24 30 31 28 28 27 24 21 14 15 15 17 12 14 10 10 6 13 9 3 2 8 11 6 6 12 10 11 10 8 10 12
30 32 33 33 34 36 37 40 36 38 37 38 18 32 24 22 26 27 27 27 25 22 15 12 12 9 14 15 17 10 7 16 16 15 8 8 4 6 9 11 9 9 11 14
33 32 34 33 37 39 38 38 36 34 34 28 33 13 18 19 26 27 26 21 17 20 18 18 15 14 15 16 14 13 13 13 16 23 26 26 21 18 18 14 16 12 13 15
30 30 30 34 36 38 40 38 35 31 28 10 31 33 23 20 27 28 23 23 23 13 17 20 15 15 15 14 15 14 12 13 16 19 21 21 19 24 21 20 17 16 15 13
31 33 33 32 33 33 45 41 34 29 29 17 6 23 28 24 16 28 28 25 26 24 17 12 19 15 17 12 18 20 22 23 21 19 20 22 20 18 20 19 21 19 16 12
32 35 33 32 33 35 41 41 36 27 25 26 12 9 27 37 33 20 33 34 34 29 26 24 22 19 24 20 15 15 15 18 22 24 23 20 15 14 18 24 19 15 12 11
32 36 35 28 32 35 39 28 17 22 23 25 8 10 14 36 34 27 29 35 34 31 30 26 24 20 21 19 26 26 26 24 25 24 22 23 22 16 17 21 20 15 14 13
36 35 31 31 33 33 25 15 13 19 23 12 13 3 13 30 31 22 36 31 31 22 33 17 11 16 16 18 20 24 20 19 19 20 19 18 20 20 18 17 18 16 15 17
40 40 38 34 31 22 17 13 19 23 21 21 17 15 10 27 20 29 19 25 10 14 15 12 16 19 24 26 22 19 18 19 20 21 20 21 18 20 25 22 18 17 18 15
32 29 32 29 25 23 16 14 10 9 7 13 20 16 24 33 26 20 10 12 11 8 8 12 8 12 19 20 24 26 28 30 30 28 22 18 18 21 22 28 23 20 21 22
28 28 30 28 14 4 7 8 6 6 5 5 19 19 24 22 20 9 8 6 7 4 9 8 6 11 15 18 23 27 27 29 28 25 22 19 16 14 15 21 27 25 22 21
28 13 9 6 5 4 5 6 7 7 10 21 22 25 26 18 9 9 7 5 5 8 9 6 6 8 12 15 18 20 21 22 22 23 24 25 26 25 18 18 20 26 25 23
6 5 5 4 4 6 10 16 19 21 20 21 19 19 13 14 8 5 4 5 7 6 5 5 5 7 10 12 16 19 20 20 20 20 20 19 18 19 17 18 14 10 13 18
3 4 5 12 21 19 16 20 22 22 21 18 15 10 11 10 5 5 4 6 4 4 5 3 3 7 9 10 10 8 10 12 13 14 13 14 13 11 10 12 12 8 7 8
6 7 23 24 21 19 17 18 17 16 15 12 10 5 5 4 3 4 3 4 3 5 5 1 3 7 9 9 7 5 2 1 1 1 2 2 2 1 2 4 8 10 10 10
8 17 20 21 19 19 18 15 15 16 13 8 6 3 3 4 3 4 3 5 9 7 3 1 3 4 4 2 4 6 8 8 9 10 11 10 11 11 10 9 12 12 12 11

GFSNW_700_spd_087.txt.gz
Wind_Speed
23 23 23 26 23 22 21 20 19 15 19 25 27 36 25 22 22 20 15 7 6 8 5 7 7 7 5 2 2 4 5 5 11 14 3 10 18 20 26 25 21 21 25 24
23 22 22 24 24 24 20 22 21 19 17 23 28 24 33 21 22 13 17 23 17 16 11 9 11 12 11 7 3 2 2 5 9 14 14 15 16 15 19 23 25 29 18 16
21 21 20 20 25 26 24 24 21 21 26 28 23 23 28 29 14 24 16 11 17 11 14 14 9 9 8 7 5 12 10 11 13 14 10 6 10 17 15 18 25 24 29 28
22 23 24 25 26 28 30 32 32 19 11 26 25 24 20 20 30 23 24 19 18 13 14 15 19 17 15 13 13 12 9 15 16 20 24 19 18 18 19 24 24 28 25 26
27 24 24 25 27 30 37 39 37 28 26 20 17 22 29 28 20 22 21 19 15 18 21 18 8 12 10 10 8 7 8 12 12 17 21 25 28 26 25 26 26 32 30 33
21 21 23 26 30 35 41 38 33 30 27 27 27 25 22 20 24 24 24 16 15 17 16 17 19 19 19 20 15 13 12 9 9 16 14 14 20 28 29 27 24 27 33 31
22 24 24 25 27 34 41 46 38 36 33 23 23 25 24 22 23 27 19 20 20 15 22 20 22 22 21 21 21 20 18 15 12 8 11 10 17 11 17 18 27 28 33 30
24 24 24 26 30 30 37 41 45 46 46 33 30 21 22 21 19 23 23 19 20 21 16 12 8 10 11 22 23 25 24 19 9 8 13 19 23 17 13 16 29 11 16 27
28 28 27 27 29 33 30 37 37 39 42 42 28 28 26 24 24 17 21 25 31 20 15 9 9 9 10 5 6 21 25 23 22 11 12 6 1 2 9 7 13 11 7 5
26 28 29 28 30 31 33 35 30 33 41 31 24 30 26 20 21 18 22 21 25 25 18 15 13 12 7 6 7 11 23 24 24 21 18 12 6 5 8 4 7 8 1 2
26 27 27 27 29 31 33 33 34 33 39 32 25 26 26 21 20 21 17 20 24 18 17 11 14 10 9 12 10 5 15 18 16 23 17 17 9 6 2 7 15 19 12 8
28 28 29 29 27 31 32 33 31 31 29 31 38 30 30 29 25 20 19 17 13 13 14 16 11 12 10 12 12 13 9 15 8 12 17 6 3 3 3 5 8 14 11 9
29 29 31 33 31 31 32 33 26 33 30 30 31 31 27 32 28 27 27 24 22 22 18 18 16 12 9 9 14 9 5 13 5 6 17 14 4 12 3 11 11 12 14 14
28 31 32 33 34 34 32 34 27 28 29 29 17 24 25 30 34 30 31 25 17 23 18 20 14 12 9 9 13 9 8 6 7 8 7 2 5 6 15 17 19 21 19 17
26 29 33 32 34 34 32 32 24 24 28 13 26 18 15 21 26 30 29 31 19 18 20 20 16 12 10 10 11 9 12 11 8 6 9 8 14 18 16 17 18 20 19 18
26 29 33 33 34 35 39 37 29 26 27 18 7 25 21 17 21 24 31 29 25 23 20 19 21 16 13 8 11 18 18 18 19 19 14 17 22 19 18 20 20 16 16 16
27 31 33 32 37 35 41 36 29 25 26 23 13 10 19 28 22 23 26 27 28 20 22 14 19 18 18 14 11 9 12 16 18 17 18 18 20 22 22 22 22 19 16 16
31 32 28 32 35 35 37 29 23 27 29 13 7 6 18 26 26 26 27 25 23 23 22 21 21 17 15 15 18 20 20 18 18 18 19 22 27 24 21 20 19 20 19 17
35 30 35 38 37 36 40 29 18 19 25 12 8 11 8 18 24 23 23 19 25 18 21 24 17 18 12 10 19 23 23 22 22 25 27 27 26 25 22 21 22 22 20 20
36 37 39 37 35 32 31 21 18 21 22 20 16 13 10 14 27 29 24 20 16 7 21 19 19 26 27 26 28 25 22 25 26 25 24 22 23 24 27 25 23 23 21 20
33 35 29 31 33 32 18 11 13 12 9 16 21 15 17 16 26 27 20 6 9 9 13 14 14 19 26 30 29 23 27 29 30 31 29 27 27 26 25 27 30 26 23 21
30 37 38 33 19 9 6 11 7 8 8 8 19 23 24 6 23 15 27 10 13 8 13 13 9 17 17 20 24 29 29 29 29 28 28 26 26 27 28 29 27 23 18 18
31 30 20 16 7 6 9 9 8 7 10 13 13 18 24 19 16 11 9 8 5 8 11 7 11 16 16 18 19 21 22 24 24 24 24 24 24 23 22 22 24 24 23 23
12 5 5 2 5 8 8 17 14 12 12 11 11 16 15 17 11 10 9 10 10 6 4 4 11 11 13 13 15 18 20 20 21 21 20 21 21 20 19 18 18 19 19 19
5 5 4 5 8 13 16 16 16 16 18 21 15 12 15 15 5 4 6 7 4 5 5 11 9 9 11 12 14 15 15 15 15 16 15 15 14 14 15 15 15 15 14 13
2 3 17 20 20 19 19 17 18 17 15 14 9 8 5 5 6 4 4 4 3 6 9 8 8 8 9 10 11 10 9 8 8 7 7 6 6 7 7 7 8 9 9 10
8 14 16 19 20 18 16 16 15 13 10 8 5 4 3 6 3 3 5 5 7 8 7 6 6 7 7 7 5 2 2 1 1 3 4 6 6 7 7 6 8 9 10 9

GFSNW_700_spd_093.txt.gz
Wind_Speed
17 14 12 9 9 18 20 18 13 7 11 20 24 28 27 25 25 19 19 20 19 11 7 14 4 8 14 17 12 5 7 6 6 11 13 13 17 24 35 21 11 20 23 28
15 16 13 13 11 14 13 19 13 11 15 21 26 22 22 19 17 14 11 14 15 12 16 8 5 9 3 4 5 5 6 2 2 5 10 7 5 16 23 25 31 27 10 14
16 18 20 18 19 18 16 17 11 16 21 20 18 15 20 20 14 17 17 23 19 19 13 8 14 16 5 5 4 3 6 5 2 3 8 12 15 14 6 10 16 22 32 36
13 15 16 17 20 22 24 26 23 14 9 24 20 19 18 11 12 15 20 19 18 14 13 13 20 17 4 4 3 4 3 5 12 20 17 12 18 22 17 16 13 15 28 25
16 15 14 15 18 23 25 27 26 21 23 15 12 19 25 19 13 14 14 19 25 19 21 14 15 14 10 5 3 2 1 6 8 13 10 10 17 21 21 22 21 18 15 18
17 19 19 18 19 27 29 26 26 27 27 27 22 17 13 12 13 14 17 17 19 26 14 10 20 13 11 9 6 7 6 6 5 6 8 10 12 19 19 16 18 17 20 16
18 16 16 19 24 30 30 28 27 30 27 25 26 24 18 14 11 14 16 19 17 20 18 20 15 18 19 18 18 16 17 9 7 8 13 2 4 7 10 12 6 19 19 18
23 21 18 18 20 28 29 29 32 31 30 21 20 22 19 17 15 15 17 18 22 17 11 13 9 14 18 25 24 25 24 16 8 4 4 12 14 6 4 6 9 12 15 19
19 24 23 21 22 21 30 30 32 36 34 30 22 19 18 19 13 15 18 18 12 11 12 4 4 3 6 4 5 19 25 18 18 4 4 3 8 7 7 7 4 10 14 19
17 17 21 23 26 24 27 27 23 35 42 32 26 25 18 14 16 18 12 12 17 18 17 15 9 8 9 7 5 13 24 22 24 23 8 6 10 13 20 4 1 7 7 11
19 20 20 22 26 29 28 26 26 23 33 38 31 25 23 15 19 20 16 13 17 12 12 9 9 8 8 8 13 13 19 17 18 15 5 9 12 13 6 4 7 6 8 10
18 21 20 22 24 29 30 28 24 23 24 25 21 30 28 23 21 22 16 16 8 11 9 11 5 7 8 6 4 3 13 20 8 10 8 9 9 5 8 4 3 6 8 10
23 25 20 20 23 26 32 29 26 25 27 28 28 25 17 25 21 17 22 20 18 12 15 11 6 7 8 8 8 7 8 14 13 14 12 12 12 12 10 8 7 8 12 13
21 23 25 23 21 27 29 31 27 25 23 26 28 15 28 20 26 26 9 9 15 13 11 14 14 14 11 12 7 6 9 7 12 10 12 17 7 3 5 8 7 10 16 19
24 23 24 26 22 26 28 27 27 25 22 10 8 17 21 22 25 23 21 17 15 15 14 15 14 15 16 19 6 8 9 11 3 11 8 11 10 2 8 8 12 13 14 17
33 30 26 27 27 25 30 30 28 20 22 20 19 5 19 21 15 21 22 22 21 20 19 16 15 14 9 1 8 16 13 11 9 4 2 3 7 7 10 13 16 18 16 13
27 27 28 25 29 31 34 31 26 22 20 22 15 18 13 20 14 16 22 22 26 23 19 20 16 13 9 12 14 9 8 10 10 7 5 6 8 12 14 14 21 23 18 13
27 28 28 27 27 28 32 28 15 24 21 21 9 7 9 16 14 16 18 21 21 22 22 15 9 13 12 9 15 15 12 9 8 6 11 12 15 16 15 18 20 19 18 16
27 31 28 28 29 32 29 26 20 22 22 13 8 8 8 16 16 16 14 18 19 12 18 14 13 13 11 10 4 5 9 6 6 12 15 15 14 16 16 16 20 21 20 20
37 36 34 33 31 28 27 21 22 25 23 19 8 11 12 21 21 17 13 13 13 4 6 8 12 15 17 14 12 10 11 15 17 19 20 19 21 21 22 23 23 23 23 23
36 37 14 30 29 22 23 13 19 14 10 17 20 6 5 11 22 20 15 8 7 3 5 9 6 10 19 20 23 21 19 18 19 21 22 22 23 26 27 23 23 23 23 24
33 29 31 33 28 11 6 12 9 8 7 9 17 18 7 5 6 14 11 8 7 4 6 8 7 15 16 16 16 16 19 19 18 16 17 18 20 22 23 23 23 23 23 24
30 35 22 13 6 6 7 9 9 8 10 12 14 17 14 8 8 6 7 10 9 6 8 6 9 13 14 16 19 19 20 19 19 21 20 19 20 21 21 21 22 23 22 22
14 8 8 5 6 7 8 16 15 12 7 8 12 13 14 15 9 3 6 7 7 7 7 9 14 12 13 16 17 18 18 18 17 18 18 18 19 19 20 20 19 18 17 15
6 6 4 4 4 9 10 17 15 14 9 8 10 11 10 11 6 3 4 7 7 7 9 13 11 11 12 15 15 14 15 15 15 15 15 16 16 16 16 15 15 14 12 10
1 2 6 5 6 8 10 14 13 12 10 10 12 8 6 6 6 7 6 5 6 8 13 10 10 10 8 8 8 9 10 9 9 9 9 9 9 8 8 7 5 4 2 2
3 8 6 10 12 12 12 11 10 13 20 16 8 6 4 5 6 6 7 8 9 7 8 7 5 5 5 6 6 6 5 4 4 3 3 4 4 3 4 4 4 4 4 4